Time,TemperatureF,DewpointF,PressureIn,WindDirection,WindDirectionDegrees,WindSpeedMPH,WindSpeedGustMPH,Humidity,HourlyPrecipIn,Conditions,Clouds,dailyrainin,SoftwareType,DateUTC
2013-03-29 00:00:00,44.5,25.0,30.34,NNE,30,1.0,1.0,46,0.00,,---,0.00,VWS V14.01,2013-03-29 04:00:00,
2013-03-29 00:01:00,44.5,25.0,30.34,NNE,30,1.0,1.0,46,0.00,,---,0.00,VWS V14.01,2013-03-29 04:01:00,
2013-03-29 00:02:00,44.4,24.9,30.34,NNE,29,1.0,1.0,46,0.00,,---,0.00,VWS V14.01,2013-03-29 04:02:00,
2013-03-29 00:03:00,44.4,24.9,30.34,NNE,28,0.0,1.0,46,0.00,,---,0.00,VWS V14.01,2013-03-29 04:03:00,
2013-03-29 00:04:00,44.4,25.5,30.34,NNE,29,0.0,1.0,47,0.00,,---,0.00,VWS V14.01,2013-03-29 04:04:00,
2013-03-29 00:05:00,44.4,25.5,30.34,NNE,30,1.0,1.0,47,0.00,,---,0.00,VWS V14.01,2013-03-29 04:05:00,
2013-03-29 00:06:00,44.3,24.8,30.34,NNE,29,1.0,1.0,46,0.00,,---,0.00,VWS V14.01,2013-03-29 04:06:00,
2013-03-29 00:07:00,44.3,24.8,30.34,NNE,29,1.0,1.0,46,0.00,,---,0.00,VWS V14.01,2013-03-29 04:07:00,
2013-03-29 00:08:00,44.3,25.4,30.34,NNE,28,2.0,2.0,47,0.00,,---,0.00,VWS V14.01,2013-03-29 04:08:00,
2013-03-29 00:09:00,44.3,25.4,30.34,NNE,28,1.0,2.0,47,0.00,,---,0.00,VWS V14.01,2013-03-29 04:09:00,
2013-03-29 00:10:00,44.3,25.4,30.34,NNE,28,1.0,1.0,47,0.00,,---,0.00,VWS V14.01,2013-03-29 04:10:00,
2013-03-29 00:11:00,44.3,25.4,30.34,NNE,28,2.0,2.0,47,0.00,,---,0.00,VWS V14.01,2013-03-29 04:11:00,
2013-03-29 00:12:00,44.3,25.4,30.34,NNE,28,2.0,2.0,47,0.00,,---,0.00,VWS V14.01,2013-03-29 04:12:00,
2013-03-29 00:13:00,44.3,25.4,30.34,NE,38,2.0,2.0,47,0.00,,---,0.00,VWS V14.01,2013-03-29 04:13:00,
2013-03-29 00:14:00,44.2,25.3,30.34,NE,38,2.0,2.0,47,0.00,,---,0.00,VWS V14.01,2013-03-29 04:14:00,
2013-03-29 00:15:00,44.2,25.3,30.34,NE,38,2.0,2.0,47,0.00,,---,0.00,VWS V14.01,2013-03-29 04:15:00,
2013-03-29 00:16:00,44.2,25.3,30.34,NE,38,2.0,2.0,47,0.00,,---,0.00,VWS V14.01,2013-03-29 04:16:00,
2013-03-29 00:17:00,44.1,25.2,30.34,NE,39,2.0,2.0,47,0.00,,---,0.00,VWS V14.01,2013-03-29 04:17:00,
2013-03-29 00:18:00,44.1,25.2,30.34,NE,51,2.0,2.0,47,0.00,,---,0.00,VWS V14.01,2013-03-29 04:18:00,
2013-03-29 00:19:00,44.1,25.2,30.34,NE,51,2.0,2.0,47,0.00,,---,0.00,VWS V14.01,2013-03-29 04:19:00,
2013-03-29 00:20:00,44.1,25.2,30.34,NE,35,1.0,2.0,47,0.00,,---,0.00,VWS V14.01,2013-03-29 04:20:00,
2013-03-29 00:21:00,44.1,25.2,30.34,NE,35,1.0,2.0,47,0.00,,---,0.00,VWS V14.01,2013-03-29 04:21:00,
2013-03-29 00:22:00,44.0,25.1,30.34,NE,34,2.0,2.0,47,0.00,,---,0.00,VWS V14.01,2013-03-29 04:22:00,
2013-03-29 00:23:00,44.0,25.1,30.34,NNE,32,1.0,2.0,47,0.00,,---,0.00,VWS V14.01,2013-03-29 04:23:00,
2013-03-29 00:24:00,43.9,25.0,30.34,NNE,32,1.0,1.0,47,0.00,,---,0.00,VWS V14.01,2013-03-29 04:24:00,
2013-03-29 00:25:00,43.9,25.0,30.34,NNE,17,2.0,2.0,47,0.00,,---,0.00,VWS V14.01,2013-03-29 04:25:00,
2013-03-29 00:26:00,43.9,25.0,30.34,NNE,18,1.0,2.0,47,0.00,,---,0.00,VWS V14.01,2013-03-29 04:26:00,
2013-03-29 00:27:00,43.8,25.4,30.34,NNE,17,1.0,2.0,48,0.00,,---,0.00,VWS V14.01,2013-03-29 04:27:00,
2013-03-29 00:28:00,43.8,25.4,30.34,NNE,17,1.0,1.0,48,0.00,,---,0.00,VWS V14.01,2013-03-29 04:28:00,
2013-03-29 00:29:00,43.7,24.8,30.34,NNE,17,1.0,1.0,47,0.00,,---,0.00,VWS V14.01,2013-03-29 04:29:00,
2013-03-29 00:30:00,43.7,24.8,30.34,NNE,17,1.0,1.0,47,0.00,,---,0.00,VWS V14.01,2013-03-29 04:30:00,
2013-03-29 00:31:00,43.7,24.8,30.34,NNE,17,1.0,1.0,47,0.00,,---,0.00,VWS V14.01,2013-03-29 04:31:00,
2013-03-29 00:32:00,43.6,25.2,30.34,NNE,17,2.0,2.0,48,0.00,,---,0.00,VWS V14.01,2013-03-29 04:32:00,
2013-03-29 00:33:00,43.6,25.2,30.34,NNE,17,2.0,2.0,48,0.00,,---,0.00,VWS V14.01,2013-03-29 04:33:00,
2013-03-29 00:34:00,43.6,25.2,30.34,NNE,17,2.0,2.0,48,0.00,,---,0.00,VWS V14.01,2013-03-29 04:34:00,
2013-03-29 00:35:00,43.5,25.1,30.34,NNE,18,2.0,2.0,48,0.00,,---,0.00,VWS V14.01,2013-03-29 04:35:00,
2013-03-29 00:36:00,43.6,25.2,30.34,NNE,18,2.0,2.0,48,0.00,,---,0.00,VWS V14.01,2013-03-29 04:36:00,
2013-03-29 00:37:00,43.5,25.1,30.34,NNE,19,2.0,2.0,48,0.00,,---,0.00,VWS V14.01,2013-03-29 04:37:00,
2013-03-29 00:38:00,43.5,25.1,30.34,NNE,19,2.0,2.0,48,0.00,,---,0.00,VWS V14.01,2013-03-29 04:38:00,
2013-03-29 00:39:00,43.5,25.1,30.34,NNE,19,1.0,2.0,48,0.00,,---,0.00,VWS V14.01,2013-03-29 04:39:00,
2013-03-29 00:40:00,43.5,25.1,30.34,NNE,19,1.0,1.0,48,0.00,,---,0.00,VWS V14.01,2013-03-29 04:40:00,
2013-03-29 00:41:00,43.4,25.0,30.34,NNE,19,0.0,1.0,48,0.00,,---,0.00,VWS V14.01,2013-03-29 04:41:00,
2013-03-29 00:42:00,43.3,24.9,30.34,NNE,19,1.0,1.0,48,0.00,,---,0.00,VWS V14.01,2013-03-29 04:42:00,
2013-03-29 00:43:00,43.3,24.9,30.34,NNE,18,0.0,1.0,48,0.00,,---,0.00,VWS V14.01,2013-03-29 04:43:00,
2013-03-29 00:44:00,43.2,25.4,30.34,NNE,19,0.0,0.0,49,0.00,,---,0.00,VWS V14.01,2013-03-29 04:44:00,
2013-03-29 00:45:00,43.2,25.4,30.34,NNE,19,0.0,0.0,49,0.00,,---,0.00,VWS V14.01,2013-03-29 04:45:00,
2013-03-29 00:46:00,43.1,25.2,30.34,NNE,19,0.0,0.0,49,0.00,,---,0.00,VWS V14.01,2013-03-29 04:46:00,
2013-03-29 00:47:00,43.0,25.2,30.34,NNE,19,0.0,0.0,49,0.00,,---,0.00,VWS V14.01,2013-03-29 04:47:00,
2013-03-29 00:48:00,42.9,25.1,30.34,NNE,18,0.0,0.0,49,0.00,,---,0.00,VWS V14.01,2013-03-29 04:48:00,
2013-03-29 00:49:00,42.9,25.1,30.34,NNE,19,0.0,0.0,49,0.00,,---,0.00,VWS V14.01,2013-03-29 04:49:00,
2013-03-29 00:50:00,42.8,25.5,30.34,NNE,18,0.0,0.0,50,0.00,,---,0.00,VWS V14.01,2013-03-29 04:50:00,
2013-03-29 00:51:00,42.7,25.4,30.34,NNE,18,0.0,0.0,50,0.00,,---,0.00,VWS V14.01,2013-03-29 04:51:00,
2013-03-29 00:52:00,42.6,25.3,30.34,NNE,19,0.0,0.0,50,0.00,,---,0.00,VWS V14.01,2013-03-29 04:52:00,
2013-03-29 00:53:00,42.5,25.7,30.34,NNE,19,0.0,0.0,51,0.00,,---,0.00,VWS V14.01,2013-03-29 04:53:00,
2013-03-29 00:54:00,42.4,26.0,30.34,NNE,18,0.0,0.0,52,0.00,,---,0.00,VWS V14.01,2013-03-29 04:54:00,
2013-03-29 00:55:00,42.2,25.9,30.34,NNE,19,0.0,0.0,52,0.00,,---,0.00,VWS V14.01,2013-03-29 04:55:00,
2013-03-29 00:56:00,42.1,25.8,30.34,NNE,18,0.0,0.0,52,0.00,,---,0.00,VWS V14.01,2013-03-29 04:56:00,
2013-03-29 00:57:00,41.9,26.0,30.34,NNE,18,0.0,0.0,53,0.00,,---,0.00,VWS V14.01,2013-03-29 04:57:00,
2013-03-29 00:58:00,41.8,25.9,30.34,NNE,19,0.0,0.0,53,0.00,,---,0.00,VWS V14.01,2013-03-29 04:58:00,
2013-03-29 00:59:00,41.6,25.3,30.34,NNE,18,0.0,0.0,52,0.00,,---,0.00,VWS V14.01,2013-03-29 04:59:00,
2013-03-29 01:00:00,41.5,25.2,30.34,NNE,19,0.0,0.0,52,0.00,,---,0.00,VWS V14.01,2013-03-29 05:00:00,
2013-03-29 01:01:00,41.4,25.1,30.34,NNE,19,0.0,0.0,52,0.00,,---,0.00,VWS V14.01,2013-03-29 05:01:00,
2013-03-29 01:02:00,41.3,25.9,30.34,NNE,18,0.0,0.0,54,0.00,,---,0.00,VWS V14.01,2013-03-29 05:02:00,
2013-03-29 01:03:00,41.3,26.4,30.34,NNE,18,0.0,0.0,55,0.00,,---,0.00,VWS V14.01,2013-03-29 05:03:00,
2013-03-29 01:04:00,41.2,25.8,30.34,NNE,18,0.0,0.0,54,0.00,,---,0.00,VWS V14.01,2013-03-29 05:04:00,
2013-03-29 01:05:00,41.1,25.7,30.34,NNE,19,0.0,0.0,54,0.00,,---,0.00,VWS V14.01,2013-03-29 05:05:00,
2013-03-29 01:06:00,41.1,26.2,30.34,NNE,18,0.0,0.0,55,0.00,,---,0.00,VWS V14.01,2013-03-29 05:06:00,
2013-03-29 01:07:00,41.0,26.1,30.34,NNE,18,0.0,0.0,55,0.00,,---,0.00,VWS V14.01,2013-03-29 05:07:00,
2013-03-29 01:08:00,40.9,25.5,30.34,NNE,18,0.0,0.0,54,0.00,,---,0.00,VWS V14.01,2013-03-29 05:08:00,
2013-03-29 01:09:00,40.8,25.5,30.34,NNE,18,0.0,0.0,54,0.00,,---,0.00,VWS V14.01,2013-03-29 05:09:00,
2013-03-29 01:10:00,40.7,25.4,30.34,NNE,19,0.0,0.0,54,0.00,,---,0.00,VWS V14.01,2013-03-29 05:10:00,
2013-03-29 01:11:00,40.7,25.4,30.34,NNE,19,0.0,0.0,54,0.00,,---,0.00,VWS V14.01,2013-03-29 05:11:00,
2013-03-29 01:12:00,40.6,25.3,30.34,NNE,18,0.0,0.0,54,0.00,,---,0.00,VWS V14.01,2013-03-29 05:12:00,
2013-03-29 01:13:00,40.6,24.8,30.34,NNE,18,0.0,0.0,53,0.00,,---,0.00,VWS V14.01,2013-03-29 05:13:00,
2013-03-29 01:14:00,40.6,24.8,30.34,NNE,19,0.0,0.0,53,0.00,,---,0.00,VWS V14.01,2013-03-29 05:14:00,
2013-03-29 01:15:00,40.5,24.7,30.34,NNE,19,0.0,0.0,53,0.00,,---,0.00,VWS V14.01,2013-03-29 05:15:00,
2013-03-29 01:16:00,40.5,24.7,30.34,NNE,18,0.0,0.0,53,0.00,,---,0.00,VWS V14.01,2013-03-29 05:16:00,
2013-03-29 01:17:00,40.5,24.7,30.34,NNE,19,0.0,0.0,53,0.00,,---,0.00,VWS V14.01,2013-03-29 05:17:00,
2013-03-29 01:18:00,40.4,25.1,30.34,NNE,19,0.0,0.0,54,0.00,,---,0.00,VWS V14.01,2013-03-29 05:18:00,
2013-03-29 01:19:00,40.4,25.5,30.34,NNE,19,0.0,0.0,55,0.00,,---,0.00,VWS V14.01,2013-03-29 05:19:00,
2013-03-29 01:20:00,40.4,25.5,30.34,NNE,18,0.0,0.0,55,0.00,,---,0.00,VWS V14.01,2013-03-29 05:20:00,
2013-03-29 01:21:00,40.3,25.9,30.34,NNE,19,0.0,0.0,56,0.00,,---,0.00,VWS V14.01,2013-03-29 05:21:00,
2013-03-29 01:22:00,40.2,25.3,30.34,NNE,19,0.0,0.0,55,0.00,,---,0.00,VWS V14.01,2013-03-29 05:22:00,
2013-03-29 01:23:00,40.2,25.3,30.34,NNE,19,0.0,0.0,55,0.00,,---,0.00,VWS V14.01,2013-03-29 05:23:00,
2013-03-29 01:24:00,40.1,24.8,30.34,NNE,18,0.0,0.0,54,0.00,,---,0.00,VWS V14.01,2013-03-29 05:24:00,
2013-03-29 01:25:00,40.1,24.8,30.34,NNE,19,0.0,0.0,54,0.00,,---,0.00,VWS V14.01,2013-03-29 05:25:00,
2013-03-29 01:26:00,40.1,24.8,30.34,NNE,18,0.0,0.0,54,0.00,,---,0.00,VWS V14.01,2013-03-29 05:26:00,
2013-03-29 01:27:00,40.1,24.8,30.34,NNE,19,0.0,0.0,54,0.00,,---,0.00,VWS V14.01,2013-03-29 05:27:00,
2013-03-29 01:28:00,40.1,24.8,30.34,NNE,18,0.0,0.0,54,0.00,,---,0.00,VWS V14.01,2013-03-29 05:28:00,
2013-03-29 01:29:00,40.1,24.8,30.34,NNE,18,0.0,0.0,54,0.00,,---,0.00,VWS V14.01,2013-03-29 05:29:00,
2013-03-29 01:30:00,40.1,24.8,30.34,NNE,18,0.0,0.0,54,0.00,,---,0.00,VWS V14.01,2013-03-29 05:30:00,
2013-03-29 01:31:00,40.1,24.8,30.34,NNE,18,0.0,0.0,54,0.00,,---,0.00,VWS V14.01,2013-03-29 05:31:00,
2013-03-29 01:32:00,40.1,25.2,30.34,NNE,19,0.0,0.0,55,0.00,,---,0.00,VWS V14.01,2013-03-29 05:32:00,
2013-03-29 01:33:00,40.1,24.8,30.35,NNE,18,0.0,0.0,54,0.00,,---,0.00,VWS V14.01,2013-03-29 05:33:00,
2013-03-29 01:34:00,40.2,24.9,30.35,NNE,19,0.0,0.0,54,0.00,,---,0.00,VWS V14.01,2013-03-29 05:34:00,
2013-03-29 01:35:00,40.3,25.0,30.35,NNE,18,0.0,0.0,54,0.00,,---,0.00,VWS V14.01,2013-03-29 05:35:00,
2013-03-29 01:36:00,40.3,25.4,30.34,NNE,19,0.0,0.0,55,0.00,,---,0.00,VWS V14.01,2013-03-29 05:36:00,
2013-03-29 01:37:00,40.3,25.0,30.35,NNE,18,0.0,0.0,54,0.00,,---,0.00,VWS V14.01,2013-03-29 05:37:00,
2013-03-29 01:38:00,40.3,25.4,30.34,NNE,18,0.0,0.0,55,0.00,,---,0.00,VWS V14.01,2013-03-29 05:38:00,
2013-03-29 01:39:00,40.2,25.8,30.34,NNE,19,0.0,0.0,56,0.00,,---,0.00,VWS V14.01,2013-03-29 05:39:00,
2013-03-29 01:40:00,40.1,25.7,30.34,NNE,19,0.0,0.0,56,0.00,,---,0.00,VWS V14.01,2013-03-29 05:40:00,
2013-03-29 01:41:00,40.0,25.1,30.34,NNE,19,0.0,0.0,55,0.00,,---,0.00,VWS V14.01,2013-03-29 05:41:00,
2013-03-29 01:42:00,40.0,24.7,30.34,NNE,18,0.0,0.0,54,0.00,,---,0.00,VWS V14.01,2013-03-29 05:42:00,
2013-03-29 01:43:00,40.2,24.9,30.34,NNE,18,0.0,0.0,54,0.00,,---,0.00,VWS V14.01,2013-03-29 05:43:00,
2013-03-29 01:44:00,40.4,25.1,30.34,NNE,19,0.0,0.0,54,0.00,,---,0.00,VWS V14.01,2013-03-29 05:44:00,
2013-03-29 01:45:00,40.5,25.2,30.34,NNE,18,0.0,0.0,54,0.00,,---,0.00,VWS V14.01,2013-03-29 05:45:00,
2013-03-29 01:46:00,40.5,25.2,30.34,NNE,18,0.0,0.0,54,0.00,,---,0.00,VWS V14.01,2013-03-29 05:46:00,
2013-03-29 01:47:00,40.6,24.8,30.34,NNE,19,0.0,0.0,53,0.00,,---,0.00,VWS V14.01,2013-03-29 05:47:00,
2013-03-29 01:48:00,40.7,24.9,30.34,NNE,18,0.0,0.0,53,0.00,,---,0.00,VWS V14.01,2013-03-29 05:48:00,
2013-03-29 01:49:00,40.7,25.4,30.34,NNE,18,0.0,0.0,54,0.00,,---,0.00,VWS V14.01,2013-03-29 05:49:00,
2013-03-29 01:50:00,40.6,25.3,30.34,NNE,19,0.0,0.0,54,0.00,,---,0.00,VWS V14.01,2013-03-29 05:50:00,
2013-03-29 01:51:00,40.6,25.3,30.34,NNE,19,0.0,0.0,54,0.00,,---,0.00,VWS V14.01,2013-03-29 05:51:00,
2013-03-29 01:52:00,40.4,25.1,30.34,NNE,19,0.0,0.0,54,0.00,,---,0.00,VWS V14.01,2013-03-29 05:52:00,
2013-03-29 01:53:00,40.3,25.4,30.34,NNE,18,0.0,0.0,55,0.00,,---,0.00,VWS V14.01,2013-03-29 05:53:00,
2013-03-29 01:54:00,40.1,25.7,30.34,NNE,18,0.0,0.0,56,0.00,,---,0.00,VWS V14.01,2013-03-29 05:54:00,
2013-03-29 01:55:00,39.9,25.9,30.34,NNE,18,0.0,0.0,57,0.00,,---,0.00,VWS V14.01,2013-03-29 05:55:00,
2013-03-29 01:56:00,39.7,25.7,30.34,NNE,18,0.0,0.0,57,0.00,,---,0.00,VWS V14.01,2013-03-29 05:56:00,
2013-03-29 01:57:00,39.5,25.5,30.34,NNE,18,0.0,0.0,57,0.00,,---,0.00,VWS V14.01,2013-03-29 05:57:00,
2013-03-29 01:58:00,39.4,25.9,30.34,NNE,18,0.0,0.0,58,0.00,,---,0.00,VWS V14.01,2013-03-29 05:58:00,
2013-03-29 01:59:00,39.2,25.7,30.34,NNE,19,0.0,0.0,58,0.00,,---,0.00,VWS V14.01,2013-03-29 05:59:00,
2013-03-29 02:00:00,39.1,25.6,30.34,NNE,18,0.0,0.0,58,0.00,,---,0.00,VWS V14.01,2013-03-29 06:00:00,
2013-03-29 02:01:00,38.9,25.4,30.34,NNE,19,0.0,0.0,58,0.00,,---,0.00,VWS V14.01,2013-03-29 06:01:00,
2013-03-29 02:02:00,38.8,25.3,30.34,NNE,18,0.0,0.0,58,0.00,,---,0.00,VWS V14.01,2013-03-29 06:02:00,
2013-03-29 02:03:00,38.6,25.1,30.34,NNE,18,0.0,0.0,58,0.00,,---,0.00,VWS V14.01,2013-03-29 06:03:00,
2013-03-29 02:04:00,38.5,25.0,30.34,NNE,19,0.0,0.0,58,0.00,,---,0.00,VWS V14.01,2013-03-29 06:04:00,
2013-03-29 02:05:00,38.4,24.9,30.34,NNE,18,0.0,0.0,58,0.00,,---,0.00,VWS V14.01,2013-03-29 06:05:00,
2013-03-29 02:06:00,38.3,25.2,30.34,NNE,18,0.0,0.0,59,0.00,,---,0.00,VWS V14.01,2013-03-29 06:06:00,
2013-03-29 02:07:00,38.2,25.5,30.34,NNE,19,0.0,0.0,60,0.00,,---,0.00,VWS V14.01,2013-03-29 06:07:00,
2013-03-29 02:08:00,38.1,25.5,30.34,NNE,19,0.0,0.0,60,0.00,,---,0.00,VWS V14.01,2013-03-29 06:08:00,
2013-03-29 02:09:00,38.3,25.2,30.34,NNE,18,0.0,0.0,59,0.00,,---,0.00,VWS V14.01,2013-03-29 06:09:00,
2013-03-29 02:10:00,38.3,25.2,30.34,NNE,18,0.0,0.0,59,0.00,,---,0.00,VWS V14.01,2013-03-29 06:10:00,
2013-03-29 02:11:00,38.4,25.3,30.34,NNE,18,0.0,0.0,59,0.00,,---,0.00,VWS V14.01,2013-03-29 06:11:00,
2013-03-29 02:12:00,38.6,25.1,30.34,NNE,18,1.0,1.0,58,0.00,,---,0.00,VWS V14.01,2013-03-29 06:12:00,
2013-03-29 02:13:00,38.8,25.3,30.34,NNE,18,1.0,2.0,58,0.00,,---,0.00,VWS V14.01,2013-03-29 06:13:00,
2013-03-29 02:14:00,39.2,25.3,30.34,NNE,19,2.0,2.0,57,0.00,,---,0.00,VWS V14.01,2013-03-29 06:14:00,
2013-03-29 02:15:00,39.2,25.3,30.34,NNE,19,1.0,2.0,57,0.00,,---,0.00,VWS V14.01,2013-03-29 06:15:00,
2013-03-29 02:16:00,39.4,25.5,30.34,NNE,18,1.0,2.0,57,0.00,,---,0.00,VWS V14.01,2013-03-29 06:16:00,
2013-03-29 02:17:00,39.5,25.1,30.34,NNE,17,2.0,2.0,56,0.00,,---,0.00,VWS V14.01,2013-03-29 06:17:00,
2013-03-29 02:18:00,39.6,25.2,30.34,NNE,17,2.0,2.0,56,0.00,,---,0.00,VWS V14.01,2013-03-29 06:18:00,
2013-03-29 02:19:00,39.8,25.0,30.34,NNE,17,1.0,1.0,55,0.00,,---,0.00,VWS V14.01,2013-03-29 06:19:00,
2013-03-29 02:20:00,39.8,25.0,30.34,NNE,17,1.0,1.0,55,0.00,,---,0.00,VWS V14.01,2013-03-29 06:20:00,
2013-03-29 02:21:00,39.9,25.1,30.34,NNE,17,1.0,1.0,55,0.00,,---,0.00,VWS V14.01,2013-03-29 06:21:00,
2013-03-29 02:22:00,40.0,25.1,30.34,NNE,18,1.0,1.0,55,0.00,,---,0.00,VWS V14.01,2013-03-29 06:22:00,
2013-03-29 02:23:00,40.1,25.2,30.34,NNE,17,1.0,1.0,55,0.00,,---,0.00,VWS V14.01,2013-03-29 06:23:00,
2013-03-29 02:24:00,40.2,25.3,30.34,NNE,17,1.0,1.0,55,0.00,,---,0.00,VWS V14.01,2013-03-29 06:24:00,
2013-03-29 02:25:00,40.2,25.3,30.34,NNE,17,1.0,1.0,55,0.00,,---,0.00,VWS V14.01,2013-03-29 06:25:00,
2013-03-29 02:26:00,40.2,24.9,30.33,NNE,17,1.0,1.0,54,0.00,,---,0.00,VWS V14.01,2013-03-29 06:26:00,
2013-03-29 02:27:00,40.3,25.4,30.34,NNE,17,1.0,1.0,55,0.00,,---,0.00,VWS V14.01,2013-03-29 06:27:00,
2013-03-29 02:28:00,40.2,25.3,30.33,NNE,18,0.0,1.0,55,0.00,,---,0.00,VWS V14.01,2013-03-29 06:28:00,
2013-03-29 02:29:00,40.1,25.2,30.34,NNE,17,0.0,0.0,55,0.00,,---,0.00,VWS V14.01,2013-03-29 06:29:00,
2013-03-29 02:30:00,40.0,25.1,30.34,NNE,17,0.0,0.0,55,0.00,,---,0.00,VWS V14.01,2013-03-29 06:30:00,
2013-03-29 02:31:00,39.9,25.5,30.34,NNE,17,0.0,1.0,56,0.00,,---,0.00,VWS V14.01,2013-03-29 06:31:00,
2013-03-29 02:32:00,39.8,25.8,30.34,NNE,17,0.0,0.0,57,0.00,,---,0.00,VWS V14.01,2013-03-29 06:32:00,
2013-03-29 02:33:00,39.6,25.6,30.34,NNE,17,0.0,0.0,57,0.00,,---,0.00,VWS V14.01,2013-03-29 06:33:00,
2013-03-29 02:34:00,39.3,25.8,30.34,NNE,17,0.0,0.0,58,0.00,,---,0.00,VWS V14.01,2013-03-29 06:34:00,
2013-03-29 02:35:00,39.3,26.2,30.34,NNE,18,1.0,1.0,59,0.00,,---,0.00,VWS V14.01,2013-03-29 06:35:00,
2013-03-29 02:36:00,39.1,26.0,30.34,East,97,2.0,2.0,59,0.00,,---,0.00,VWS V14.01,2013-03-29 06:36:00,
2013-03-29 02:37:00,38.9,25.8,30.34,East,97,1.0,2.0,59,0.00,,---,0.00,VWS V14.01,2013-03-29 06:37:00,
2013-03-29 02:38:00,38.8,25.7,30.34,East,97,0.0,1.0,59,0.00,,---,0.00,VWS V14.01,2013-03-29 06:38:00,
2013-03-29 02:39:00,38.7,25.6,30.34,East,96,0.0,0.0,59,0.00,,---,0.00,VWS V14.01,2013-03-29 06:39:00,
2013-03-29 02:40:00,38.8,25.7,30.34,East,97,0.0,0.0,59,0.00,,---,0.00,VWS V14.01,2013-03-29 06:40:00,
2013-03-29 02:41:00,38.7,26.0,30.34,East,97,0.0,0.0,60,0.00,,---,0.00,VWS V14.01,2013-03-29 06:41:00,
2013-03-29 02:42:00,38.7,26.0,30.34,East,97,0.0,0.0,60,0.00,,---,0.00,VWS V14.01,2013-03-29 06:42:00,
2013-03-29 02:43:00,38.6,25.9,30.34,East,97,0.0,0.0,60,0.00,,---,0.00,VWS V14.01,2013-03-29 06:43:00,
2013-03-29 02:44:00,38.4,25.7,30.34,East,97,0.0,0.0,60,0.00,,---,0.00,VWS V14.01,2013-03-29 06:44:00,
2013-03-29 02:45:00,38.4,25.7,30.34,East,97,0.0,0.0,60,0.00,,---,0.00,VWS V14.01,2013-03-29 06:45:00,
2013-03-29 02:46:00,38.3,25.6,30.33,East,97,0.0,0.0,60,0.00,,---,0.00,VWS V14.01,2013-03-29 06:46:00,
2013-03-29 02:47:00,38.2,26.0,30.33,East,96,0.0,0.0,61,0.00,,---,0.00,VWS V14.01,2013-03-29 06:47:00,
2013-03-29 02:48:00,38.1,25.9,30.33,East,97,1.0,1.0,61,0.00,,---,0.00,VWS V14.01,2013-03-29 06:48:00,
2013-03-29 02:49:00,38.0,26.1,30.33,East,97,1.0,1.0,62,0.00,,---,0.00,VWS V14.01,2013-03-29 06:49:00,
2013-03-29 02:50:00,38.0,26.1,30.33,East,97,1.0,1.0,62,0.00,,---,0.00,VWS V14.01,2013-03-29 06:50:00,
2013-03-29 02:51:00,38.0,26.5,30.33,East,97,1.0,1.0,63,0.00,,---,0.00,VWS V14.01,2013-03-29 06:51:00,
2013-03-29 02:52:00,38.0,26.5,30.33,East,97,1.0,1.0,63,0.00,,---,0.00,VWS V14.01,2013-03-29 06:52:00,
2013-03-29 02:53:00,38.0,26.1,30.33,East,96,1.0,1.0,62,0.00,,---,0.00,VWS V14.01,2013-03-29 06:53:00,
2013-03-29 02:54:00,38.0,26.1,30.33,East,97,1.0,1.0,62,0.00,,---,0.00,VWS V14.01,2013-03-29 06:54:00,
2013-03-29 02:55:00,38.0,26.1,30.33,East,96,1.0,1.0,62,0.00,,---,0.00,VWS V14.01,2013-03-29 06:55:00,
2013-03-29 02:56:00,37.9,26.8,30.33,East,97,1.0,1.0,64,0.00,,---,0.00,VWS V14.01,2013-03-29 06:56:00,
2013-03-29 02:57:00,37.7,27.4,30.33,East,97,0.0,1.0,66,0.00,,---,0.00,VWS V14.01,2013-03-29 06:57:00,
2013-03-29 02:58:00,37.5,28.3,30.33,East,97,0.0,1.0,69,0.00,,---,0.00,VWS V14.01,2013-03-29 06:58:00,
2013-03-29 02:59:00,37.1,28.2,30.33,East,97,0.0,0.0,70,0.00,,---,0.00,VWS V14.01,2013-03-29 06:59:00,
2013-03-29 03:00:00,37.1,28.2,30.33,East,96,0.0,0.0,70,0.00,,---,0.00,VWS V14.01,2013-03-29 07:00:00,
2013-03-29 03:01:00,36.9,27.7,30.33,East,97,0.0,0.0,69,0.00,,---,0.00,VWS V14.01,2013-03-29 07:01:00,
2013-03-29 03:02:00,36.7,27.1,30.33,East,97,0.0,0.0,68,0.00,,---,0.00,VWS V14.01,2013-03-29 07:02:00,
2013-03-29 03:03:00,36.6,27.0,30.33,East,96,0.0,0.0,68,0.00,,---,0.00,VWS V14.01,2013-03-29 07:03:00,
2013-03-29 03:04:00,36.4,26.9,30.33,East,96,0.0,0.0,68,0.00,,---,0.00,VWS V14.01,2013-03-29 07:04:00,
2013-03-29 03:05:00,36.4,26.5,30.33,East,97,0.0,0.0,67,0.00,,---,0.00,VWS V14.01,2013-03-29 07:05:00,
2013-03-29 03:06:00,36.3,26.4,30.33,East,97,0.0,0.0,67,0.00,,---,0.00,VWS V14.01,2013-03-29 07:06:00,
2013-03-29 03:07:00,36.3,26.4,30.33,East,96,0.0,0.0,67,0.00,,---,0.00,VWS V14.01,2013-03-29 07:07:00,
2013-03-29 03:08:00,36.4,26.5,30.33,East,97,0.0,0.0,67,0.00,,---,0.00,VWS V14.01,2013-03-29 07:08:00,
2013-03-29 03:09:00,36.5,26.2,30.33,East,97,0.0,0.0,66,0.00,,---,0.00,VWS V14.01,2013-03-29 07:09:00,
2013-03-29 03:10:00,36.5,26.2,30.33,East,97,0.0,0.0,66,0.00,,---,0.00,VWS V14.01,2013-03-29 07:10:00,
2013-03-29 03:11:00,36.6,26.7,30.33,East,97,0.0,0.0,67,0.00,,---,0.00,VWS V14.01,2013-03-29 07:11:00,
2013-03-29 03:12:00,36.5,26.2,30.33,East,97,0.0,0.0,66,0.00,,---,0.00,VWS V14.01,2013-03-29 07:12:00,
2013-03-29 03:13:00,36.6,26.3,30.33,East,97,0.0,0.0,66,0.00,,---,0.00,VWS V14.01,2013-03-29 07:13:00,
2013-03-29 03:14:00,36.5,26.2,30.33,East,97,0.0,0.0,66,0.00,,---,0.00,VWS V14.01,2013-03-29 07:14:00,
2013-03-29 03:15:00,36.5,26.2,30.33,East,96,1.0,1.0,66,0.00,,---,0.00,VWS V14.01,2013-03-29 07:15:00,
2013-03-29 03:16:00,36.5,25.9,30.33,East,94,1.0,1.0,65,0.00,,---,0.00,VWS V14.01,2013-03-29 07:16:00,
2013-03-29 03:17:00,36.6,26.0,30.33,East,88,1.0,1.0,65,0.00,,---,0.00,VWS V14.01,2013-03-29 07:17:00,
2013-03-29 03:18:00,36.7,25.7,30.33,NNE,18,1.0,1.0,64,0.00,,---,0.00,VWS V14.01,2013-03-29 07:18:00,
2013-03-29 03:19:00,37.0,25.6,30.33,NNE,19,2.0,2.0,63,0.00,,---,0.00,VWS V14.01,2013-03-29 07:19:00,
2013-03-29 03:20:00,37.1,25.7,30.33,NNE,19,2.0,2.0,63,0.00,,---,0.00,VWS V14.01,2013-03-29 07:20:00,
2013-03-29 03:21:00,37.2,25.8,30.33,NNE,18,1.0,2.0,63,0.00,,---,0.00,VWS V14.01,2013-03-29 07:21:00,
2013-03-29 03:22:00,37.3,25.9,30.33,NNE,18,0.0,1.0,63,0.00,,---,0.00,VWS V14.01,2013-03-29 07:22:00,
2013-03-29 03:23:00,37.3,26.2,30.33,NNE,18,0.0,0.0,64,0.00,,---,0.00,VWS V14.01,2013-03-29 07:23:00,
2013-03-29 03:24:00,37.2,26.9,30.33,NNE,18,0.0,0.0,66,0.00,,---,0.00,VWS V14.01,2013-03-29 07:24:00,
2013-03-29 03:25:00,37.1,26.8,30.33,NNE,18,0.0,0.0,66,0.00,,---,0.00,VWS V14.01,2013-03-29 07:25:00,
2013-03-29 03:26:00,37.0,27.4,30.33,NNE,18,0.0,0.0,68,0.00,,---,0.00,VWS V14.01,2013-03-29 07:26:00,
2013-03-29 03:27:00,36.8,27.2,30.33,NNE,19,0.0,0.0,68,0.00,,---,0.00,VWS V14.01,2013-03-29 07:27:00,
2013-03-29 03:28:00,36.5,27.3,30.33,NNE,18,0.0,0.0,69,0.00,,---,0.00,VWS V14.01,2013-03-29 07:28:00,
2013-03-29 03:29:00,36.3,27.1,30.33,NNE,18,0.0,0.0,69,0.00,,---,0.00,VWS V14.01,2013-03-29 07:29:00,
2013-03-29 03:30:00,36.2,27.0,30.33,NNE,18,0.0,0.0,69,0.00,,---,0.00,VWS V14.01,2013-03-29 07:30:00,
2013-03-29 03:31:00,36.0,26.8,30.33,NNE,19,0.0,0.0,69,0.00,,---,0.00,VWS V14.01,2013-03-29 07:31:00,
2013-03-29 03:32:00,35.8,26.3,30.33,NNE,18,0.0,0.0,68,0.00,,---,0.00,VWS V14.01,2013-03-29 07:32:00,
2013-03-29 03:33:00,35.6,25.7,30.33,NNE,19,0.0,0.0,67,0.00,,---,0.00,VWS V14.01,2013-03-29 07:33:00,
2013-03-29 03:34:00,35.4,25.5,30.33,NNE,19,0.0,0.0,67,0.00,,---,0.00,VWS V14.01,2013-03-29 07:34:00,
2013-03-29 03:35:00,35.4,25.5,30.33,NNE,19,0.0,0.0,67,0.00,,---,0.00,VWS V14.01,2013-03-29 07:35:00,
2013-03-29 03:36:00,35.3,25.8,30.33,NNE,19,0.0,0.0,68,0.00,,---,0.00,VWS V14.01,2013-03-29 07:36:00,
2013-03-29 03:37:00,35.1,25.3,30.33,NNE,18,0.0,0.0,67,0.00,,---,0.00,VWS V14.01,2013-03-29 07:37:00,
2013-03-29 03:38:00,35.0,25.5,30.33,NNE,19,0.0,0.0,68,0.00,,---,0.00,VWS V14.01,2013-03-29 07:38:00,
2013-03-29 03:39:00,35.0,25.5,30.33,NNE,19,0.0,0.0,68,0.00,,---,0.00,VWS V14.01,2013-03-29 07:39:00,
2013-03-29 03:40:00,35.1,25.6,30.33,NNE,18,0.0,0.0,68,0.00,,---,0.00,VWS V14.01,2013-03-29 07:40:00,
2013-03-29 03:41:00,35.2,25.7,30.33,NNE,18,0.0,0.0,68,0.00,,---,0.00,VWS V14.01,2013-03-29 07:41:00,
2013-03-29 03:42:00,35.3,25.8,30.33,NNE,18,0.0,0.0,68,0.00,,---,0.00,VWS V14.01,2013-03-29 07:42:00,
2013-03-29 03:43:00,35.5,25.6,30.33,NNE,18,0.0,0.0,67,0.00,,---,0.00,VWS V14.01,2013-03-29 07:43:00,
2013-03-29 03:44:00,35.9,25.7,30.33,NNE,18,0.0,0.0,66,0.00,,---,0.00,VWS V14.01,2013-03-29 07:44:00,
2013-03-29 03:45:00,36.0,25.4,30.33,NNE,19,0.0,0.0,65,0.00,,---,0.00,VWS V14.01,2013-03-29 07:45:00,
2013-03-29 03:46:00,36.2,25.2,30.33,NNE,19,0.0,0.0,64,0.00,,---,0.00,VWS V14.01,2013-03-29 07:46:00,
2013-03-29 03:47:00,36.5,25.5,30.33,NNE,19,0.0,0.0,64,0.00,,---,0.00,VWS V14.01,2013-03-29 07:47:00,
2013-03-29 03:48:00,36.6,25.6,30.32,NNE,19,0.0,0.0,64,0.00,,---,0.00,VWS V14.01,2013-03-29 07:48:00,
2013-03-29 03:49:00,36.8,25.8,30.33,NNE,19,0.0,0.0,64,0.00,,---,0.00,VWS V14.01,2013-03-29 07:49:00,
2013-03-29 03:50:00,36.8,25.8,30.33,NNE,18,0.0,0.0,64,0.00,,---,0.00,VWS V14.01,2013-03-29 07:50:00,
2013-03-29 03:51:00,36.8,26.1,30.32,NNE,19,0.0,0.0,65,0.00,,---,0.00,VWS V14.01,2013-03-29 07:51:00,
2013-03-29 03:52:00,36.8,26.9,30.32,NNE,18,0.0,0.0,67,0.00,,---,0.00,VWS V14.01,2013-03-29 07:52:00,
2013-03-29 03:53:00,36.7,27.1,30.33,NNE,18,0.0,0.0,68,0.00,,---,0.00,VWS V14.01,2013-03-29 07:53:00,
2013-03-29 03:54:00,36.4,27.9,30.33,NNE,18,0.0,0.0,71,0.00,,---,0.00,VWS V14.01,2013-03-29 07:54:00,
2013-03-29 03:55:00,36.3,27.8,30.33,NNE,19,0.0,0.0,71,0.00,,---,0.00,VWS V14.01,2013-03-29 07:55:00,
2013-03-29 03:56:00,36.0,27.2,30.33,NW,310,0.0,0.0,70,0.00,,---,0.00,VWS V14.01,2013-03-29 07:56:00,
2013-03-29 03:57:00,35.9,26.0,30.33,WNW,300,0.0,0.0,67,0.00,,---,0.00,VWS V14.01,2013-03-29 07:57:00,
2013-03-29 03:58:00,35.9,26.0,30.33,WNW,300,0.0,0.0,67,0.00,,---,0.00,VWS V14.01,2013-03-29 07:58:00,
2013-03-29 03:59:00,36.0,25.8,30.33,WNW,300,0.0,0.0,66,0.00,,---,0.00,VWS V14.01,2013-03-29 07:59:00,
2013-03-29 04:00:00,36.0,25.8,30.33,WNW,300,0.0,0.0,66,0.00,,---,0.00,VWS V14.01,2013-03-29 08:00:00,
2013-03-29 04:01:00,36.2,25.6,30.33,WNW,292,0.0,0.0,65,0.00,,---,0.00,VWS V14.01,2013-03-29 08:01:00,
2013-03-29 04:02:00,36.3,25.7,30.33,WNW,292,0.0,0.0,65,0.00,,---,0.00,VWS V14.01,2013-03-29 08:02:00,
2013-03-29 04:03:00,36.3,26.0,30.33,WNW,292,0.0,0.0,66,0.00,,---,0.00,VWS V14.01,2013-03-29 08:03:00,
2013-03-29 04:04:00,36.3,26.4,30.33,WNW,292,0.0,0.0,67,0.00,,---,0.00,VWS V14.01,2013-03-29 08:04:00,
2013-03-29 04:05:00,36.2,26.7,30.33,WNW,292,0.0,0.0,68,0.00,,---,0.00,VWS V14.01,2013-03-29 08:05:00,
2013-03-29 04:06:00,36.1,26.2,30.33,WNW,292,0.0,0.0,67,0.00,,---,0.00,VWS V14.01,2013-03-29 08:06:00,
2013-03-29 04:07:00,36.0,25.8,30.33,WNW,292,0.0,0.0,66,0.00,,---,0.00,VWS V14.01,2013-03-29 08:07:00,
2013-03-29 04:08:00,36.0,25.8,30.33,WNW,292,0.0,0.0,66,0.00,,---,0.00,VWS V14.01,2013-03-29 08:08:00,
2013-03-29 04:09:00,36.0,25.4,30.33,WNW,292,0.0,0.0,65,0.00,,---,0.00,VWS V14.01,2013-03-29 08:09:00,
2013-03-29 04:10:00,36.0,25.4,30.33,WNW,292,0.0,0.0,65,0.00,,---,0.00,VWS V14.01,2013-03-29 08:10:00,
2013-03-29 04:11:00,36.0,25.8,30.33,WNW,292,0.0,0.0,66,0.00,,---,0.00,VWS V14.01,2013-03-29 08:11:00,
2013-03-29 04:12:00,36.0,25.4,30.33,WNW,292,0.0,0.0,65,0.00,,---,0.00,VWS V14.01,2013-03-29 08:12:00,
2013-03-29 04:13:00,36.0,25.4,30.33,WNW,292,0.0,0.0,65,0.00,,---,0.00,VWS V14.01,2013-03-29 08:13:00,
2013-03-29 04:14:00,36.1,25.1,30.33,WNW,292,0.0,0.0,64,0.00,,---,0.00,VWS V14.01,2013-03-29 08:14:00,
2013-03-29 04:15:00,36.2,25.2,30.33,WNW,292,0.0,0.0,64,0.00,,---,0.00,VWS V14.01,2013-03-29 08:15:00,
2013-03-29 04:16:00,36.3,25.3,30.33,WNW,292,0.0,0.0,64,0.00,,---,0.00,VWS V14.01,2013-03-29 08:16:00,
2013-03-29 04:17:00,36.4,25.0,30.33,WNW,292,0.0,0.0,63,0.00,,---,0.00,VWS V14.01,2013-03-29 08:17:00,
2013-03-29 04:18:00,36.5,25.1,30.33,WNW,292,0.0,0.0,63,0.00,,---,0.00,VWS V14.01,2013-03-29 08:18:00,
2013-03-29 04:19:00,36.7,25.3,30.33,WNW,292,0.0,0.0,63,0.00,,---,0.00,VWS V14.01,2013-03-29 08:19:00,
2013-03-29 04:20:00,36.7,25.3,30.33,WNW,292,0.0,0.0,63,0.00,,---,0.00,VWS V14.01,2013-03-29 08:20:00,
2013-03-29 04:21:00,36.7,25.3,30.33,WNW,292,0.0,0.0,63,0.00,,---,0.00,VWS V14.01,2013-03-29 08:21:00,
2013-03-29 04:22:00,36.8,25.4,30.33,WNW,292,0.0,0.0,63,0.00,,---,0.00,VWS V14.01,2013-03-29 08:22:00,
2013-03-29 04:23:00,36.9,25.1,30.33,WNW,292,0.0,0.0,62,0.00,,---,0.00,VWS V14.01,2013-03-29 08:23:00,
2013-03-29 04:24:00,37.0,25.2,30.33,WNW,292,0.0,0.0,62,0.00,,---,0.00,VWS V14.01,2013-03-29 08:24:00,
2013-03-29 04:25:00,37.1,25.3,30.33,WNW,292,0.0,0.0,62,0.00,,---,0.00,VWS V14.01,2013-03-29 08:25:00,
2013-03-29 04:26:00,37.2,25.0,30.33,WNW,292,0.0,0.0,61,0.00,,---,0.00,VWS V14.01,2013-03-29 08:26:00,
2013-03-29 04:27:00,37.3,25.1,30.33,WNW,292,0.0,0.0,61,0.00,,---,0.00,VWS V14.01,2013-03-29 08:27:00,
2013-03-29 04:28:00,37.3,25.1,30.33,WNW,292,0.0,0.0,61,0.00,,---,0.00,VWS V14.01,2013-03-29 08:28:00,
2013-03-29 04:29:00,37.4,25.2,30.33,WNW,292,0.0,0.0,61,0.00,,---,0.00,VWS V14.01,2013-03-29 08:29:00,
2013-03-29 04:30:00,37.4,25.2,30.33,WNW,292,0.0,0.0,61,0.00,,---,0.00,VWS V14.01,2013-03-29 08:30:00,
2013-03-29 04:31:00,37.3,25.1,30.33,WNW,292,0.0,0.0,61,0.00,,---,0.00,VWS V14.01,2013-03-29 08:31:00,
2013-03-29 04:32:00,37.2,25.4,30.33,WNW,292,0.0,0.0,62,0.00,,---,0.00,VWS V14.01,2013-03-29 08:32:00,
2013-03-29 04:33:00,37.1,25.3,30.33,WNW,292,0.0,0.0,62,0.00,,---,0.00,VWS V14.01,2013-03-29 08:33:00,
2013-03-29 04:34:00,36.9,25.1,30.33,WNW,292,0.0,0.0,62,0.00,,---,0.00,VWS V14.01,2013-03-29 08:34:00,
2013-03-29 04:35:00,36.7,25.3,30.33,WNW,292,0.0,0.0,63,0.00,,---,0.00,VWS V14.01,2013-03-29 08:35:00,
2013-03-29 04:36:00,36.6,25.2,30.33,WNW,292,0.0,0.0,63,0.00,,---,0.00,VWS V14.01,2013-03-29 08:36:00,
2013-03-29 04:37:00,36.4,25.4,30.33,WNW,292,0.0,0.0,64,0.00,,---,0.00,VWS V14.01,2013-03-29 08:37:00,
2013-03-29 04:38:00,36.2,25.2,30.33,WNW,292,0.0,0.0,64,0.00,,---,0.00,VWS V14.01,2013-03-29 08:38:00,
2013-03-29 04:39:00,36.0,25.0,30.33,WNW,292,0.0,0.0,64,0.00,,---,0.00,VWS V14.01,2013-03-29 08:39:00,
2013-03-29 04:40:00,35.9,25.3,30.33,WNW,292,0.0,0.0,65,0.00,,---,0.00,VWS V14.01,2013-03-29 08:40:00,
2013-03-29 04:41:00,35.8,25.2,30.33,WNW,294,0.0,0.0,65,0.00,,---,0.00,VWS V14.01,2013-03-29 08:41:00,
2013-03-29 04:42:00,35.7,25.1,30.33,WNW,292,0.0,0.0,65,0.00,,---,0.00,VWS V14.01,2013-03-29 08:42:00,
2013-03-29 04:43:00,35.7,25.1,30.33,WNW,292,0.0,0.0,65,0.00,,---,0.00,VWS V14.01,2013-03-29 08:43:00,
2013-03-29 04:44:00,35.6,25.0,30.33,WNW,292,0.0,0.0,65,0.00,,---,0.00,VWS V14.01,2013-03-29 08:44:00,
2013-03-29 04:45:00,35.6,25.4,30.33,WNW,292,0.0,0.0,66,0.00,,---,0.00,VWS V14.01,2013-03-29 08:45:00,
2013-03-29 04:46:00,35.5,24.9,30.33,WNW,294,0.0,0.0,65,0.00,,---,0.00,VWS V14.01,2013-03-29 08:46:00,
2013-03-29 04:47:00,35.5,24.9,30.33,WNW,292,0.0,0.0,65,0.00,,---,0.00,VWS V14.01,2013-03-29 08:47:00,
2013-03-29 04:48:00,35.4,24.8,30.33,WNW,292,0.0,0.0,65,0.00,,---,0.00,VWS V14.01,2013-03-29 08:48:00,
2013-03-29 04:49:00,35.2,24.6,30.33,WNW,292,0.0,0.0,65,0.00,,---,0.00,VWS V14.01,2013-03-29 08:49:00,
2013-03-29 04:50:00,35.2,25.0,30.33,WNW,294,0.0,0.0,66,0.00,,---,0.00,VWS V14.01,2013-03-29 08:50:00,
2013-03-29 04:51:00,35.0,24.8,30.33,WNW,292,0.0,0.0,66,0.00,,---,0.00,VWS V14.01,2013-03-29 08:51:00,
2013-03-29 04:52:00,34.9,25.1,30.33,WNW,292,0.0,0.0,67,0.00,,---,0.00,VWS V14.01,2013-03-29 08:52:00,
2013-03-29 04:53:00,34.8,25.0,30.33,WNW,292,0.0,0.0,67,0.00,,---,0.00,VWS V14.01,2013-03-29 08:53:00,
2013-03-29 04:54:00,34.8,25.3,30.33,WNW,294,0.0,0.0,68,0.00,,---,0.00,VWS V14.01,2013-03-29 08:54:00,
2013-03-29 04:55:00,34.8,25.3,30.33,WNW,293,0.0,0.0,68,0.00,,---,0.00,VWS V14.01,2013-03-29 08:55:00,
2013-03-29 04:56:00,34.8,25.7,30.33,WNW,292,0.0,0.0,69,0.00,,---,0.00,VWS V14.01,2013-03-29 08:56:00,
2013-03-29 04:57:00,34.7,25.6,30.33,WNW,292,0.0,0.0,69,0.00,,---,0.00,VWS V14.01,2013-03-29 08:57:00,
2013-03-29 04:58:00,34.8,25.7,30.33,WNW,292,0.0,0.0,69,0.00,,---,0.00,VWS V14.01,2013-03-29 08:58:00,
2013-03-29 04:59:00,34.8,26.0,30.33,WNW,292,0.0,0.0,70,0.00,,---,0.00,VWS V14.01,2013-03-29 08:59:00,
2013-03-29 05:00:00,34.9,26.1,30.33,WNW,292,0.0,0.0,70,0.00,,---,0.00,VWS V14.01,2013-03-29 09:00:00,
2013-03-29 05:01:00,34.8,26.0,30.33,WNW,292,0.0,0.0,70,0.00,,---,0.00,VWS V14.01,2013-03-29 09:01:00,
2013-03-29 05:02:00,34.8,25.7,30.33,WNW,294,0.0,0.0,69,0.00,,---,0.00,VWS V14.01,2013-03-29 09:02:00,
2013-03-29 05:03:00,34.8,25.7,30.33,WNW,292,0.0,0.0,69,0.00,,---,0.00,VWS V14.01,2013-03-29 09:03:00,
2013-03-29 05:04:00,34.9,25.4,30.33,WNW,292,0.0,0.0,68,0.00,,---,0.00,VWS V14.01,2013-03-29 09:04:00,
2013-03-29 05:05:00,34.9,25.4,30.33,WNW,292,0.0,0.0,68,0.00,,---,0.00,VWS V14.01,2013-03-29 09:05:00,
2013-03-29 05:06:00,35.0,25.5,30.33,WNW,292,0.0,0.0,68,0.00,,---,0.00,VWS V14.01,2013-03-29 09:06:00,
2013-03-29 05:07:00,35.1,25.6,30.33,WNW,294,0.0,0.0,68,0.00,,---,0.00,VWS V14.01,2013-03-29 09:07:00,
2013-03-29 05:08:00,35.2,25.7,30.33,WNW,294,0.0,0.0,68,0.00,,---,0.00,VWS V14.01,2013-03-29 09:08:00,
2013-03-29 05:09:00,35.3,25.8,30.33,WNW,292,0.0,0.0,68,0.00,,---,0.00,VWS V14.01,2013-03-29 09:09:00,
2013-03-29 05:10:00,35.3,25.8,30.33,WNW,292,0.0,0.0,68,0.00,,---,0.00,VWS V14.01,2013-03-29 09:10:00,
2013-03-29 05:11:00,35.3,25.8,30.33,WNW,292,0.0,0.0,68,0.00,,---,0.00,VWS V14.01,2013-03-29 09:11:00,
2013-03-29 05:12:00,35.3,25.8,30.33,WNW,292,0.0,0.0,68,0.00,,---,0.00,VWS V14.01,2013-03-29 09:12:00,
2013-03-29 05:13:00,35.3,25.8,30.33,WNW,292,0.0,0.0,68,0.00,,---,0.00,VWS V14.01,2013-03-29 09:13:00,
2013-03-29 05:14:00,35.3,25.8,30.33,WNW,294,0.0,0.0,68,0.00,,---,0.00,VWS V14.01,2013-03-29 09:14:00,
2013-03-29 05:15:00,35.3,25.8,30.33,WNW,294,0.0,0.0,68,0.00,,---,0.00,VWS V14.01,2013-03-29 09:15:00,
2013-03-29 05:16:00,35.3,25.8,30.33,WNW,292,0.0,0.0,68,0.00,,---,0.00,VWS V14.01,2013-03-29 09:16:00,
2013-03-29 05:17:00,35.3,25.8,30.33,WNW,292,0.0,0.0,68,0.00,,---,0.00,VWS V14.01,2013-03-29 09:17:00,
2013-03-29 05:18:00,35.3,25.8,30.33,WNW,292,0.0,0.0,68,0.00,,---,0.00,VWS V14.01,2013-03-29 09:18:00,
2013-03-29 05:19:00,35.3,25.8,30.33,WNW,292,0.0,0.0,68,0.00,,---,0.00,VWS V14.01,2013-03-29 09:19:00,
2013-03-29 05:20:00,35.2,26.1,30.33,WNW,292,0.0,0.0,69,0.00,,---,0.00,VWS V14.01,2013-03-29 09:20:00,
2013-03-29 05:21:00,35.2,26.1,30.33,WNW,292,0.0,0.0,69,0.00,,---,0.00,VWS V14.01,2013-03-29 09:21:00,
2013-03-29 05:22:00,35.2,26.4,30.33,WNW,292,0.0,0.0,70,0.00,,---,0.00,VWS V14.01,2013-03-29 09:22:00,
2013-03-29 05:23:00,35.1,26.7,30.33,WNW,294,0.0,0.0,71,0.00,,---,0.00,VWS V14.01,2013-03-29 09:23:00,
2013-03-29 05:24:00,34.9,26.1,30.33,WNW,292,0.0,0.0,70,0.00,,---,0.00,VWS V14.01,2013-03-29 09:24:00,
2013-03-29 05:25:00,34.9,25.8,30.33,WNW,292,0.0,0.0,69,0.00,,---,0.00,VWS V14.01,2013-03-29 09:25:00,
2013-03-29 05:26:00,35.0,25.5,30.33,WNW,292,0.0,0.0,68,0.00,,---,0.00,VWS V14.01,2013-03-29 09:26:00,
2013-03-29 05:27:00,35.1,26.0,30.33,WNW,292,0.0,0.0,69,0.00,,---,0.00,VWS V14.01,2013-03-29 09:27:00,
2013-03-29 05:28:00,35.2,26.1,30.33,WNW,292,0.0,0.0,69,0.00,,---,0.00,VWS V14.01,2013-03-29 09:28:00,
2013-03-29 05:29:00,35.2,26.4,30.33,WNW,292,0.0,0.0,70,0.00,,---,0.00,VWS V14.01,2013-03-29 09:29:00,
2013-03-29 05:30:00,35.2,26.4,30.33,WNW,292,0.0,0.0,70,0.00,,---,0.00,VWS V14.01,2013-03-29 09:30:00,
2013-03-29 05:31:00,35.1,26.0,30.33,WNW,292,0.0,0.0,69,0.00,,---,0.00,VWS V14.01,2013-03-29 09:31:00,
2013-03-29 05:32:00,35.1,26.0,30.33,WNW,292,0.0,0.0,69,0.00,,---,0.00,VWS V14.01,2013-03-29 09:32:00,
2013-03-29 05:33:00,35.1,26.0,30.33,WNW,292,0.0,0.0,69,0.00,,---,0.00,VWS V14.01,2013-03-29 09:33:00,
2013-03-29 05:34:00,35.0,25.9,30.33,WNW,294,0.0,0.0,69,0.00,,---,0.00,VWS V14.01,2013-03-29 09:34:00,
2013-03-29 05:35:00,35.0,25.9,30.33,WNW,292,0.0,0.0,69,0.00,,---,0.00,VWS V14.01,2013-03-29 09:35:00,
2013-03-29 05:36:00,34.9,25.8,30.33,WNW,292,0.0,0.0,69,0.00,,---,0.00,VWS V14.01,2013-03-29 09:36:00,
2013-03-29 05:37:00,34.9,25.8,30.33,WNW,292,0.0,0.0,69,0.00,,---,0.00,VWS V14.01,2013-03-29 09:37:00,
2013-03-29 05:38:00,34.9,25.8,30.33,WNW,292,0.0,0.0,69,0.00,,---,0.00,VWS V14.01,2013-03-29 09:38:00,
2013-03-29 05:39:00,35.0,25.9,30.33,WNW,292,0.0,0.0,69,0.00,,---,0.00,VWS V14.01,2013-03-29 09:39:00,
2013-03-29 05:40:00,35.1,26.0,30.33,WNW,294,0.0,0.0,69,0.00,,---,0.00,VWS V14.01,2013-03-29 09:40:00,
2013-03-29 05:41:00,35.1,26.0,30.33,WNW,292,0.0,0.0,69,0.00,,---,0.00,VWS V14.01,2013-03-29 09:41:00,
2013-03-29 05:42:00,35.1,25.6,30.33,WNW,292,0.0,0.0,68,0.00,,---,0.00,VWS V14.01,2013-03-29 09:42:00,
2013-03-29 05:43:00,35.1,26.0,30.33,WNW,292,0.0,0.0,69,0.00,,---,0.00,VWS V14.01,2013-03-29 09:43:00,
2013-03-29 05:44:00,35.0,25.9,30.34,WNW,294,0.0,0.0,69,0.00,,---,0.00,VWS V14.01,2013-03-29 09:44:00,
2013-03-29 05:45:00,34.9,25.8,30.34,WNW,292,0.0,0.0,69,0.00,,---,0.00,VWS V14.01,2013-03-29 09:45:00,
2013-03-29 05:46:00,34.8,25.7,30.34,WNW,292,0.0,0.0,69,0.00,,---,0.00,VWS V14.01,2013-03-29 09:46:00,
2013-03-29 05:47:00,34.7,25.9,30.34,WNW,292,0.0,0.0,70,0.00,,---,0.00,VWS V14.01,2013-03-29 09:47:00,
2013-03-29 05:48:00,34.6,26.2,30.34,WNW,292,0.0,0.0,71,0.00,,---,0.00,VWS V14.01,2013-03-29 09:48:00,
2013-03-29 05:49:00,34.5,26.1,30.34,WNW,292,0.0,0.0,71,0.00,,---,0.00,VWS V14.01,2013-03-29 09:49:00,
2013-03-29 05:50:00,34.4,26.0,30.34,WNW,292,0.0,0.0,71,0.00,,---,0.00,VWS V14.01,2013-03-29 09:50:00,
2013-03-29 05:51:00,34.4,26.0,30.34,WNW,292,0.0,0.0,71,0.00,,---,0.00,VWS V14.01,2013-03-29 09:51:00,
2013-03-29 05:52:00,34.3,26.2,30.34,WNW,292,0.0,0.0,72,0.00,,---,0.00,VWS V14.01,2013-03-29 09:52:00,
2013-03-29 05:53:00,34.3,26.2,30.34,WNW,292,0.0,0.0,72,0.00,,---,0.00,VWS V14.01,2013-03-29 09:53:00,
2013-03-29 05:54:00,34.3,26.2,30.34,WNW,292,0.0,0.0,72,0.00,,---,0.00,VWS V14.01,2013-03-29 09:54:00,
2013-03-29 05:55:00,34.3,26.2,30.34,WNW,292,0.0,0.0,72,0.00,,---,0.00,VWS V14.01,2013-03-29 09:55:00,
2013-03-29 05:56:00,34.3,25.9,30.34,WNW,292,0.0,0.0,71,0.00,,---,0.00,VWS V14.01,2013-03-29 09:56:00,
2013-03-29 05:57:00,34.4,25.6,30.34,WNW,292,0.0,0.0,70,0.00,,---,0.00,VWS V14.01,2013-03-29 09:57:00,
2013-03-29 05:58:00,34.5,25.7,30.34,WNW,292,0.0,0.0,70,0.00,,---,0.00,VWS V14.01,2013-03-29 09:58:00,
2013-03-29 05:59:00,34.6,25.8,30.34,WNW,292,0.0,0.0,70,0.00,,---,0.00,VWS V14.01,2013-03-29 09:59:00,
2013-03-29 06:00:00,34.7,25.6,30.34,WNW,292,0.0,0.0,69,0.00,,---,0.00,VWS V14.01,2013-03-29 10:00:00,
2013-03-29 06:01:00,34.8,25.7,30.34,WNW,292,0.0,0.0,69,0.00,,---,0.00,VWS V14.01,2013-03-29 10:01:00,
2013-03-29 06:02:00,34.8,25.7,30.34,WNW,292,0.0,0.0,69,0.00,,---,0.00,VWS V14.01,2013-03-29 10:02:00,
2013-03-29 06:03:00,34.8,25.7,30.34,WNW,292,0.0,0.0,69,0.00,,---,0.00,VWS V14.01,2013-03-29 10:03:00,
2013-03-29 06:04:00,34.9,25.4,30.34,WNW,292,0.0,0.0,68,0.00,,---,0.00,VWS V14.01,2013-03-29 10:04:00,
2013-03-29 06:05:00,34.9,25.4,30.34,WNW,292,0.0,0.0,68,0.00,,---,0.00,VWS V14.01,2013-03-29 10:05:00,
2013-03-29 06:06:00,35.0,25.5,30.34,WNW,292,0.0,0.0,68,0.00,,---,0.00,VWS V14.01,2013-03-29 10:06:00,
2013-03-29 06:07:00,35.0,25.5,30.34,WNW,292,0.0,0.0,68,0.00,,---,0.00,VWS V14.01,2013-03-29 10:07:00,
2013-03-29 06:08:00,35.1,25.3,30.34,WNW,292,0.0,0.0,67,0.00,,---,0.00,VWS V14.01,2013-03-29 10:08:00,
2013-03-29 06:09:00,35.1,25.6,30.34,WNW,292,0.0,0.0,68,0.00,,---,0.00,VWS V14.01,2013-03-29 10:09:00,
2013-03-29 06:10:00,35.2,25.7,30.34,WNW,292,0.0,0.0,68,0.00,,---,0.00,VWS V14.01,2013-03-29 10:10:00,
2013-03-29 06:11:00,35.2,25.7,30.34,WNW,292,0.0,0.0,68,0.00,,---,0.00,VWS V14.01,2013-03-29 10:11:00,
2013-03-29 06:12:00,35.2,25.4,30.34,WNW,292,0.0,0.0,67,0.00,,---,0.00,VWS V14.01,2013-03-29 10:12:00,
2013-03-29 06:13:00,35.2,25.4,30.34,WNW,292,0.0,0.0,67,0.00,,---,0.00,VWS V14.01,2013-03-29 10:13:00,
2013-03-29 06:14:00,35.2,25.4,30.34,WNW,292,0.0,0.0,67,0.00,,---,0.00,VWS V14.01,2013-03-29 10:14:00,
2013-03-29 06:15:00,35.2,25.4,30.34,WNW,292,0.0,0.0,67,0.00,,---,0.00,VWS V14.01,2013-03-29 10:15:00,
2013-03-29 06:16:00,35.2,25.4,30.34,WNW,294,0.0,0.0,67,0.00,,---,0.00,VWS V14.01,2013-03-29 10:16:00,
2013-03-29 06:17:00,35.3,25.5,30.34,WNW,292,0.0,0.0,67,0.00,,---,0.00,VWS V14.01,2013-03-29 10:17:00,
2013-03-29 06:18:00,35.3,25.8,30.34,WNW,292,0.0,0.0,68,0.00,,---,0.00,VWS V14.01,2013-03-29 10:18:00,
2013-03-29 06:19:00,35.3,25.8,30.34,WNW,292,0.0,0.0,68,0.00,,---,0.00,VWS V14.01,2013-03-29 10:19:00,
2013-03-29 06:20:00,35.3,25.8,30.34,WNW,292,0.0,0.0,68,0.00,,---,0.00,VWS V14.01,2013-03-29 10:20:00,
2013-03-29 06:21:00,35.3,25.8,30.34,WNW,292,0.0,0.0,68,0.00,,---,0.00,VWS V14.01,2013-03-29 10:21:00,
2013-03-29 06:22:00,35.3,26.2,30.34,WNW,292,0.0,0.0,69,0.00,,---,0.00,VWS V14.01,2013-03-29 10:22:00,
2013-03-29 06:23:00,35.2,25.7,30.34,WNW,292,0.0,0.0,68,0.00,,---,0.00,VWS V14.01,2013-03-29 10:23:00,
2013-03-29 06:24:00,35.2,26.1,30.34,WNW,292,0.0,0.0,69,0.00,,---,0.00,VWS V14.01,2013-03-29 10:24:00,
2013-03-29 06:25:00,35.2,26.1,30.34,WNW,292,0.0,0.0,69,0.00,,---,0.00,VWS V14.01,2013-03-29 10:25:00,
2013-03-29 06:26:00,35.2,26.1,30.34,WNW,292,0.0,0.0,69,0.00,,---,0.00,VWS V14.01,2013-03-29 10:26:00,
2013-03-29 06:27:00,35.1,26.0,30.34,WNW,292,0.0,0.0,69,0.00,,---,0.00,VWS V14.01,2013-03-29 10:27:00,
2013-03-29 06:28:00,35.1,26.0,30.34,WNW,292,0.0,0.0,69,0.00,,---,0.00,VWS V14.01,2013-03-29 10:28:00,
2013-03-29 06:29:00,35.1,26.0,30.35,WNW,292,0.0,0.0,69,0.00,,---,0.00,VWS V14.01,2013-03-29 10:29:00,
2013-03-29 06:30:00,35.1,26.0,30.35,WNW,292,0.0,0.0,69,0.00,,---,0.00,VWS V14.01,2013-03-29 10:30:00,
2013-03-29 06:31:00,35.1,26.3,30.34,WNW,292,0.0,0.0,70,0.00,,---,0.00,VWS V14.01,2013-03-29 10:31:00,
2013-03-29 06:32:00,35.0,26.6,30.35,WNW,292,0.0,0.0,71,0.00,,---,0.00,VWS V14.01,2013-03-29 10:32:00,
2013-03-29 06:33:00,35.0,26.9,30.35,WNW,292,0.0,0.0,72,0.00,,---,0.00,VWS V14.01,2013-03-29 10:33:00,
2013-03-29 06:34:00,34.9,27.1,30.35,WNW,292,0.0,0.0,73,0.00,,---,0.00,VWS V14.01,2013-03-29 10:34:00,
2013-03-29 06:35:00,34.9,26.8,30.35,WNW,292,0.0,0.0,72,0.00,,---,0.00,VWS V14.01,2013-03-29 10:35:00,
2013-03-29 06:36:00,34.9,26.8,30.35,WNW,292,0.0,0.0,72,0.00,,---,0.00,VWS V14.01,2013-03-29 10:36:00,
2013-03-29 06:37:00,34.9,26.5,30.35,WNW,292,0.0,0.0,71,0.00,,---,0.00,VWS V14.01,2013-03-29 10:37:00,
2013-03-29 06:38:00,35.0,26.6,30.35,WNW,292,0.0,0.0,71,0.00,,---,0.00,VWS V14.01,2013-03-29 10:38:00,
2013-03-29 06:39:00,35.1,26.7,30.35,WNW,292,0.0,0.0,71,0.00,,---,0.00,VWS V14.01,2013-03-29 10:39:00,
2013-03-29 06:40:00,35.2,26.8,30.35,WNW,292,0.0,0.0,71,0.00,,---,0.00,VWS V14.01,2013-03-29 10:40:00,
2013-03-29 06:41:00,35.2,26.8,30.35,WNW,292,0.0,0.0,71,0.00,,---,0.00,VWS V14.01,2013-03-29 10:41:00,
2013-03-29 06:42:00,35.3,26.9,30.35,WNW,292,0.0,0.0,71,0.00,,---,0.00,VWS V14.01,2013-03-29 10:42:00,
2013-03-29 06:43:00,35.3,26.9,30.35,WNW,292,0.0,0.0,71,0.00,,---,0.00,VWS V14.01,2013-03-29 10:43:00,
2013-03-29 06:44:00,35.3,26.5,30.35,WNW,292,0.0,0.0,70,0.00,,---,0.00,VWS V14.01,2013-03-29 10:44:00,
2013-03-29 06:45:00,35.3,26.5,30.35,WNW,292,0.0,0.0,70,0.00,,---,0.00,VWS V14.01,2013-03-29 10:45:00,
2013-03-29 06:46:00,35.2,26.4,30.35,WNW,292,0.0,0.0,70,0.00,,---,0.00,VWS V14.01,2013-03-29 10:46:00,
2013-03-29 06:47:00,35.1,27.0,30.35,WNW,292,0.0,0.0,72,0.00,,---,0.00,VWS V14.01,2013-03-29 10:47:00,
2013-03-29 06:48:00,35.1,27.0,30.35,WNW,292,0.0,0.0,72,0.00,,---,0.00,VWS V14.01,2013-03-29 10:48:00,
2013-03-29 06:49:00,34.9,27.1,30.35,WNW,292,0.0,0.0,73,0.00,,---,0.00,VWS V14.01,2013-03-29 10:49:00,
2013-03-29 06:50:00,34.8,27.4,30.35,WNW,292,0.0,0.0,74,0.00,,---,0.00,VWS V14.01,2013-03-29 10:50:00,
2013-03-29 06:51:00,34.6,27.5,30.35,WNW,292,0.0,0.0,75,0.00,,---,0.00,VWS V14.01,2013-03-29 10:51:00,
2013-03-29 06:52:00,34.4,27.6,30.35,WNW,292,0.0,0.0,76,0.00,,---,0.00,VWS V14.01,2013-03-29 10:52:00,
2013-03-29 06:53:00,34.2,27.4,30.35,WNW,292,0.0,0.0,76,0.00,,---,0.00,VWS V14.01,2013-03-29 10:53:00,
2013-03-29 06:54:00,34.1,27.3,30.35,WNW,292,0.0,0.0,76,0.00,,---,0.00,VWS V14.01,2013-03-29 10:54:00,
2013-03-29 06:55:00,34.0,27.2,30.35,WNW,292,0.0,0.0,76,0.00,,---,0.00,VWS V14.01,2013-03-29 10:55:00,
2013-03-29 06:56:00,34.0,27.2,30.35,WNW,292,0.0,0.0,76,0.00,,---,0.00,VWS V14.01,2013-03-29 10:56:00,
2013-03-29 06:57:00,34.0,26.9,30.35,WNW,292,0.0,0.0,75,0.00,,---,0.00,VWS V14.01,2013-03-29 10:57:00,
2013-03-29 06:58:00,34.0,26.9,30.35,WNW,292,0.0,0.0,75,0.00,,---,0.00,VWS V14.01,2013-03-29 10:58:00,
2013-03-29 06:59:00,34.0,26.9,30.36,WNW,292,0.0,0.0,75,0.00,,---,0.00,VWS V14.01,2013-03-29 10:59:00,
2013-03-29 07:00:00,34.1,27.0,30.36,WNW,292,0.0,0.0,75,0.00,,---,0.00,VWS V14.01,2013-03-29 11:00:00,
2013-03-29 07:01:00,34.1,27.0,30.35,WNW,292,0.0,0.0,75,0.00,,---,0.00,VWS V14.01,2013-03-29 11:01:00,
2013-03-29 07:02:00,34.1,27.0,30.36,WNW,292,0.0,0.0,75,0.00,,---,0.00,VWS V14.01,2013-03-29 11:02:00,
2013-03-29 07:03:00,34.2,27.1,30.36,WNW,292,0.0,0.0,75,0.00,,---,0.00,VWS V14.01,2013-03-29 11:03:00,
2013-03-29 07:04:00,34.3,27.2,30.36,WNW,292,0.0,0.0,75,0.00,,---,0.00,VWS V14.01,2013-03-29 11:04:00,
2013-03-29 07:05:00,34.3,27.5,30.36,WNW,292,0.0,0.0,76,0.00,,---,0.00,VWS V14.01,2013-03-29 11:05:00,
2013-03-29 07:06:00,34.4,27.3,30.36,WNW,292,0.0,0.0,75,0.00,,---,0.00,VWS V14.01,2013-03-29 11:06:00,
2013-03-29 07:07:00,34.4,27.3,30.36,WNW,294,0.0,0.0,75,0.00,,---,0.00,VWS V14.01,2013-03-29 11:07:00,
2013-03-29 07:08:00,34.5,27.4,30.36,WNW,292,0.0,0.0,75,0.00,,---,0.00,VWS V14.01,2013-03-29 11:08:00,
2013-03-29 07:09:00,34.5,27.4,30.36,WNW,292,0.0,0.0,75,0.00,,---,0.00,VWS V14.01,2013-03-29 11:09:00,
2013-03-29 07:10:00,34.5,27.4,30.36,WNW,292,0.0,0.0,75,0.00,,---,0.00,VWS V14.01,2013-03-29 11:10:00,
2013-03-29 07:11:00,34.4,27.3,30.36,WNW,292,0.0,0.0,75,0.00,,---,0.00,VWS V14.01,2013-03-29 11:11:00,
2013-03-29 07:12:00,34.5,27.7,30.36,WNW,292,0.0,0.0,76,0.00,,---,0.00,VWS V14.01,2013-03-29 11:12:00,
2013-03-29 07:13:00,34.4,27.6,30.36,WNW,292,0.0,0.0,76,0.00,,---,0.00,VWS V14.01,2013-03-29 11:13:00,
2013-03-29 07:14:00,34.4,27.6,30.36,WNW,292,0.0,0.0,76,0.00,,---,0.00,VWS V14.01,2013-03-29 11:14:00,
2013-03-29 07:15:00,34.5,27.7,30.36,WNW,292,0.0,0.0,76,0.00,,---,0.00,VWS V14.01,2013-03-29 11:15:00,
2013-03-29 07:16:00,34.4,27.6,30.36,WNW,292,0.0,0.0,76,0.00,,---,0.00,VWS V14.01,2013-03-29 11:16:00,
2013-03-29 07:17:00,34.4,27.6,30.36,WNW,294,0.0,0.0,76,0.00,,---,0.00,VWS V14.01,2013-03-29 11:17:00,
2013-03-29 07:18:00,34.3,27.9,30.36,WNW,292,0.0,0.0,77,0.00,,---,0.00,VWS V14.01,2013-03-29 11:18:00,
2013-03-29 07:19:00,34.3,27.9,30.36,WNW,292,0.0,0.0,77,0.00,,---,0.00,VWS V14.01,2013-03-29 11:19:00,
2013-03-29 07:20:00,34.3,27.9,30.36,WNW,292,0.0,0.0,77,0.00,,---,0.00,VWS V14.01,2013-03-29 11:20:00,
2013-03-29 07:21:00,34.3,27.9,30.36,WNW,292,0.0,0.0,77,0.00,,---,0.00,VWS V14.01,2013-03-29 11:21:00,
2013-03-29 07:22:00,34.3,27.9,30.36,WNW,292,0.0,0.0,77,0.00,,---,0.00,VWS V14.01,2013-03-29 11:22:00,
2013-03-29 07:23:00,34.3,28.2,30.36,WNW,292,0.0,0.0,78,0.00,,---,0.00,VWS V14.01,2013-03-29 11:23:00,
2013-03-29 07:24:00,34.3,28.2,30.36,WNW,292,0.0,0.0,78,0.00,,---,0.00,VWS V14.01,2013-03-29 11:24:00,
2013-03-29 07:25:00,34.3,28.5,30.36,WNW,291,0.0,0.0,79,0.00,,---,0.00,VWS V14.01,2013-03-29 11:25:00,
2013-03-29 07:26:00,34.2,28.4,30.36,WNW,287,0.0,0.0,79,0.00,,---,0.00,VWS V14.01,2013-03-29 11:26:00,
2013-03-29 07:27:00,34.2,28.7,30.36,WNW,286,0.0,0.0,80,0.00,,---,0.00,VWS V14.01,2013-03-29 11:27:00,
2013-03-29 07:28:00,34.1,28.9,30.36,WNW,287,0.0,0.0,81,0.00,,---,0.00,VWS V14.01,2013-03-29 11:28:00,
2013-03-29 07:29:00,34.1,28.9,30.36,WNW,286,0.0,0.0,81,0.00,,---,0.00,VWS V14.01,2013-03-29 11:29:00,
2013-03-29 07:30:00,34.1,28.9,30.36,WNW,286,0.0,0.0,81,0.00,,---,0.00,VWS V14.01,2013-03-29 11:30:00,
2013-03-29 07:31:00,34.2,29.3,30.37,WNW,286,0.0,0.0,82,0.00,,---,0.00,VWS V14.01,2013-03-29 11:31:00,
2013-03-29 07:32:00,34.2,29.0,30.36,WNW,287,0.0,0.0,81,0.00,,---,0.00,VWS V14.01,2013-03-29 11:32:00,
2013-03-29 07:33:00,34.2,29.3,30.37,WNW,287,0.0,0.0,82,0.00,,---,0.00,VWS V14.01,2013-03-29 11:33:00,
2013-03-29 07:34:00,34.2,29.3,30.37,WNW,287,0.0,0.0,82,0.00,,---,0.00,VWS V14.01,2013-03-29 11:34:00,
2013-03-29 07:35:00,34.3,29.4,30.37,WNW,286,0.0,0.0,82,0.00,,---,0.00,VWS V14.01,2013-03-29 11:35:00,
2013-03-29 07:36:00,34.3,29.4,30.37,WNW,287,0.0,0.0,82,0.00,,---,0.00,VWS V14.01,2013-03-29 11:36:00,
2013-03-29 07:37:00,34.4,29.5,30.37,WNW,284,2.0,2.0,82,0.00,,---,0.00,VWS V14.01,2013-03-29 11:37:00,
2013-03-29 07:38:00,34.5,29.9,30.37,WNW,286,2.0,2.0,83,0.00,,---,0.00,VWS V14.01,2013-03-29 11:38:00,
2013-03-29 07:39:00,34.6,29.7,30.37,WNW,286,2.0,2.0,82,0.00,,---,0.00,VWS V14.01,2013-03-29 11:39:00,
2013-03-29 07:40:00,34.7,29.8,30.37,WNW,285,1.0,2.0,82,0.00,,---,0.00,VWS V14.01,2013-03-29 11:40:00,
2013-03-29 07:41:00,34.7,29.8,30.37,WNW,286,0.0,1.0,82,0.00,,---,0.00,VWS V14.01,2013-03-29 11:41:00,
2013-03-29 07:42:00,34.8,29.9,30.37,WNW,286,1.0,2.0,82,0.00,,---,0.00,VWS V14.01,2013-03-29 11:42:00,
2013-03-29 07:43:00,34.9,30.0,30.37,WNW,286,1.0,1.0,82,0.00,,---,0.00,VWS V14.01,2013-03-29 11:43:00,
2013-03-29 07:44:00,34.9,30.0,30.37,WNW,285,1.0,1.0,82,0.00,,---,0.00,VWS V14.01,2013-03-29 11:44:00,
2013-03-29 07:45:00,35.0,30.4,30.37,NW,310,1.0,1.0,83,0.00,,---,0.00,VWS V14.01,2013-03-29 11:45:00,
2013-03-29 07:46:00,35.1,30.5,30.37,NW,310,1.0,1.0,83,0.00,,---,0.00,VWS V14.01,2013-03-29 11:46:00,
2013-03-29 07:47:00,35.1,30.5,30.37,NW,310,1.0,1.0,83,0.00,,---,0.00,VWS V14.01,2013-03-29 11:47:00,
2013-03-29 07:48:00,35.2,30.6,30.37,WNW,303,1.0,1.0,83,0.00,,---,0.00,VWS V14.01,2013-03-29 11:48:00,
2013-03-29 07:49:00,35.3,30.7,30.37,West,277,2.0,2.0,83,0.00,,---,0.00,VWS V14.01,2013-03-29 11:49:00,
2013-03-29 07:50:00,35.3,30.4,30.37,West,277,1.0,2.0,82,0.00,,---,0.00,VWS V14.01,2013-03-29 11:50:00,
2013-03-29 07:51:00,35.4,30.5,30.37,West,271,2.0,3.0,82,0.00,,---,0.00,VWS V14.01,2013-03-29 11:51:00,
2013-03-29 07:52:00,35.5,30.6,30.37,West,280,2.0,2.0,82,0.00,,---,0.00,VWS V14.01,2013-03-29 11:52:00,
2013-03-29 07:53:00,35.6,30.7,30.37,WNW,284,2.0,3.0,82,0.00,,---,0.00,VWS V14.01,2013-03-29 11:53:00,
2013-03-29 07:54:00,35.7,30.5,30.37,WNW,284,1.0,1.0,81,0.00,,---,0.00,VWS V14.01,2013-03-29 11:54:00,
2013-03-29 07:55:00,35.8,30.5,30.37,WNW,283,1.0,1.0,81,0.00,,---,0.00,VWS V14.01,2013-03-29 11:55:00,
2013-03-29 07:56:00,35.9,30.6,30.37,WNW,290,1.0,2.0,81,0.00,,---,0.00,VWS V14.01,2013-03-29 11:56:00,
2013-03-29 07:57:00,35.9,30.6,30.37,WNW,295,1.0,2.0,81,0.00,,---,0.00,VWS V14.01,2013-03-29 11:57:00,
2013-03-29 07:58:00,36.0,30.8,30.37,WNW,291,1.0,3.0,81,0.00,,---,0.00,VWS V14.01,2013-03-29 11:58:00,
2013-03-29 07:59:00,36.1,30.8,30.37,WNW,287,2.0,2.0,81,0.00,,---,0.00,VWS V14.01,2013-03-29 11:59:00,
2013-03-29 08:00:00,36.2,30.9,30.37,WNW,295,0.0,2.0,81,0.00,,---,0.00,VWS V14.01,2013-03-29 12:00:00,
2013-03-29 08:01:00,36.2,30.9,30.37,WNW,295,1.0,1.0,81,0.00,,---,0.00,VWS V14.01,2013-03-29 12:01:00,
2013-03-29 08:02:00,36.3,31.0,30.37,WNW,295,1.0,2.0,81,0.00,,---,0.00,VWS V14.01,2013-03-29 12:02:00,
2013-03-29 08:03:00,36.3,30.7,30.37,WNW,295,2.0,2.0,80,0.00,,---,0.00,VWS V14.01,2013-03-29 12:03:00,
2013-03-29 08:04:00,36.4,30.8,30.37,WNW,284,1.0,2.0,80,0.00,,---,0.00,VWS V14.01,2013-03-29 12:04:00,
2013-03-29 08:05:00,36.5,30.9,30.37,WNW,284,2.0,2.0,80,0.00,,---,0.00,VWS V14.01,2013-03-29 12:05:00,
2013-03-29 08:06:00,36.5,30.6,30.37,WNW,284,1.0,2.0,79,0.00,,---,0.00,VWS V14.01,2013-03-29 12:06:00,
2013-03-29 08:07:00,36.7,30.8,30.37,WNW,294,1.0,2.0,79,0.00,,---,0.00,VWS V14.01,2013-03-29 12:07:00,
2013-03-29 08:08:00,36.8,30.9,30.37,WNW,290,1.0,2.0,79,0.00,,---,0.00,VWS V14.01,2013-03-29 12:08:00,
2013-03-29 08:09:00,36.8,30.6,30.37,WNW,290,2.0,3.0,78,0.00,,---,0.00,VWS V14.01,2013-03-29 12:09:00,
2013-03-29 08:10:00,36.9,30.7,30.37,WNW,286,1.0,2.0,78,0.00,,---,0.00,VWS V14.01,2013-03-29 12:10:00,
2013-03-29 08:11:00,37.0,30.8,30.37,WNW,286,1.0,2.0,78,0.00,,---,0.00,VWS V14.01,2013-03-29 12:11:00,
2013-03-29 08:12:00,37.1,30.6,30.37,WNW,288,1.0,2.0,77,0.00,,---,0.00,VWS V14.01,2013-03-29 12:12:00,
2013-03-29 08:13:00,37.2,30.7,30.37,WNW,288,1.0,2.0,77,0.00,,---,0.00,VWS V14.01,2013-03-29 12:13:00,
2013-03-29 08:14:00,37.2,30.7,30.37,WNW,291,2.0,2.0,77,0.00,,---,0.00,VWS V14.01,2013-03-29 12:14:00,
2013-03-29 08:15:00,37.3,30.8,30.37,WNW,290,1.0,2.0,77,0.00,,---,0.00,VWS V14.01,2013-03-29 12:15:00,
2013-03-29 08:16:00,37.4,30.9,30.38,WNW,292,1.0,2.0,77,0.00,,---,0.00,VWS V14.01,2013-03-29 12:16:00,
2013-03-29 08:17:00,37.5,30.6,30.38,West,276,1.0,2.0,76,0.00,,---,0.00,VWS V14.01,2013-03-29 12:17:00,
2013-03-29 08:18:00,37.5,30.6,30.38,West,272,2.0,2.0,76,0.00,,---,0.00,VWS V14.01,2013-03-29 12:18:00,
2013-03-29 08:19:00,37.6,30.7,30.38,WNW,288,2.0,3.0,76,0.00,,---,0.00,VWS V14.01,2013-03-29 12:19:00,
2013-03-29 08:20:00,37.6,30.4,30.38,WNW,286,2.0,3.0,75,0.00,,---,0.00,VWS V14.01,2013-03-29 12:20:00,
2013-03-29 08:21:00,37.7,30.5,30.38,WNW,285,1.0,2.0,75,0.00,,---,0.00,VWS V14.01,2013-03-29 12:21:00,
2013-03-29 08:22:00,37.8,30.6,30.38,West,280,2.0,2.0,75,0.00,,---,0.00,VWS V14.01,2013-03-29 12:22:00,
2013-03-29 08:23:00,37.9,30.7,30.38,WNW,298,1.0,2.0,75,0.00,,---,0.00,VWS V14.01,2013-03-29 12:23:00,
2013-03-29 08:24:00,38.0,30.8,30.38,WNW,298,2.0,2.0,75,0.00,,---,0.00,VWS V14.01,2013-03-29 12:24:00,
2013-03-29 08:25:00,38.0,30.8,30.38,West,275,1.0,2.0,75,0.00,,---,0.00,VWS V14.01,2013-03-29 12:25:00,
2013-03-29 08:26:00,38.1,30.9,30.38,WNW,283,3.0,3.0,75,0.00,,---,0.00,VWS V14.01,2013-03-29 12:26:00,
2013-03-29 08:27:00,38.1,30.6,30.38,West,281,2.0,3.0,74,0.00,,---,0.00,VWS V14.01,2013-03-29 12:27:00,
2013-03-29 08:28:00,38.2,30.7,30.38,WNW,287,2.0,2.0,74,0.00,,---,0.00,VWS V14.01,2013-03-29 12:28:00,
2013-03-29 08:29:00,38.3,30.8,30.38,WNW,284,2.0,3.0,74,0.00,,---,0.00,VWS V14.01,2013-03-29 12:29:00,
2013-03-29 08:30:00,38.3,30.8,30.38,WNW,288,2.0,2.0,74,0.00,,---,0.00,VWS V14.01,2013-03-29 12:30:00,
2013-03-29 08:31:00,38.4,30.9,30.38,WNW,290,3.0,3.0,74,0.00,,---,0.00,VWS V14.01,2013-03-29 12:31:00,
2013-03-29 08:32:00,38.5,30.6,30.38,West,280,1.0,3.0,73,0.00,,---,0.00,VWS V14.01,2013-03-29 12:32:00,
2013-03-29 08:33:00,38.6,30.7,30.38,WNW,284,2.0,2.0,73,0.00,,---,0.00,VWS V14.01,2013-03-29 12:33:00,
2013-03-29 08:34:00,38.7,30.8,30.38,WNW,287,2.0,3.0,73,0.00,,---,0.00,VWS V14.01,2013-03-29 12:34:00,
2013-03-29 08:35:00,38.7,30.8,30.38,West,277,2.0,2.0,73,0.00,,---,0.00,VWS V14.01,2013-03-29 12:35:00,
2013-03-29 08:36:00,38.9,31.0,30.38,WNW,284,3.0,3.0,73,0.00,,---,0.00,VWS V14.01,2013-03-29 12:36:00,
2013-03-29 08:37:00,38.9,31.0,30.38,WSW,254,2.0,3.0,73,0.00,,---,0.00,VWS V14.01,2013-03-29 12:37:00,
2013-03-29 08:38:00,39.0,31.1,30.38,WNW,290,1.0,3.0,73,0.00,,---,0.00,VWS V14.01,2013-03-29 12:38:00,
2013-03-29 08:39:00,39.1,30.9,30.38,West,259,2.0,3.0,72,0.00,,---,0.00,VWS V14.01,2013-03-29 12:39:00,
2013-03-29 08:40:00,39.2,31.3,30.38,West,265,2.0,3.0,73,0.00,,---,0.00,VWS V14.01,2013-03-29 12:40:00,
2013-03-29 08:41:00,39.3,31.0,30.38,West,269,2.0,3.0,72,0.00,,---,0.00,VWS V14.01,2013-03-29 12:41:00,
2013-03-29 08:42:00,39.5,31.2,30.38,WNW,284,1.0,2.0,72,0.00,,---,0.00,VWS V14.01,2013-03-29 12:42:00,
2013-03-29 08:43:00,39.6,31.3,30.38,WNW,284,0.0,1.0,72,0.00,,---,0.00,VWS V14.01,2013-03-29 12:43:00,
2013-03-29 08:44:00,39.7,31.1,30.38,WNW,296,1.0,3.0,71,0.00,,---,0.00,VWS V14.01,2013-03-29 12:44:00,
2013-03-29 08:45:00,39.9,31.3,30.38,WNW,296,1.0,1.0,71,0.00,,---,0.00,VWS V14.01,2013-03-29 12:45:00,
2013-03-29 08:46:00,40.0,31.4,30.38,West,275,0.0,3.0,71,0.00,,---,0.00,VWS V14.01,2013-03-29 12:46:00,
2013-03-29 08:47:00,40.1,31.5,30.38,WNW,291,2.0,3.0,71,0.00,,---,0.00,VWS V14.01,2013-03-29 12:47:00,
2013-03-29 08:48:00,40.3,31.3,30.38,NW,310,3.0,3.0,70,0.00,,---,0.00,VWS V14.01,2013-03-29 12:48:00,
2013-03-29 08:49:00,40.4,31.0,30.38,North,355,2.0,3.0,69,0.00,,---,0.00,VWS V14.01,2013-03-29 12:49:00,
2013-03-29 08:50:00,40.6,31.2,30.38,NW,309,1.0,3.0,69,0.00,,---,0.00,VWS V14.01,2013-03-29 12:50:00,
2013-03-29 08:51:00,40.7,31.3,30.38,WNW,287,3.0,3.0,69,0.00,,---,0.00,VWS V14.01,2013-03-29 12:51:00,
2013-03-29 08:52:00,40.8,31.1,30.38,WNW,303,4.0,4.0,68,0.00,,---,0.00,VWS V14.01,2013-03-29 12:52:00,
2013-03-29 08:53:00,40.9,30.8,30.38,WNW,292,1.0,4.0,67,0.00,,---,0.00,VWS V14.01,2013-03-29 12:53:00,
2013-03-29 08:54:00,41.1,31.0,30.38,NNW,329,3.0,3.0,67,0.00,,---,0.00,VWS V14.01,2013-03-29 12:54:00,
2013-03-29 08:55:00,41.2,30.7,30.38,NW,316,1.0,4.0,66,0.00,,---,0.00,VWS V14.01,2013-03-29 12:55:00,
2013-03-29 08:56:00,41.4,30.9,30.38,WNW,288,1.0,2.0,66,0.00,,---,0.00,VWS V14.01,2013-03-29 12:56:00,
2013-03-29 08:57:00,41.5,31.0,30.38,WNW,284,2.0,3.0,66,0.00,,---,0.00,VWS V14.01,2013-03-29 12:57:00,
2013-03-29 08:58:00,41.6,31.1,30.38,NW,317,1.0,2.0,66,0.00,,---,0.00,VWS V14.01,2013-03-29 12:58:00,
2013-03-29 08:59:00,41.8,31.3,30.38,West,280,1.0,1.0,66,0.00,,---,0.00,VWS V14.01,2013-03-29 12:59:00,
2013-03-29 09:00:00,42.0,31.5,30.38,WNW,286,1.0,3.0,66,0.00,,---,0.00,VWS V14.01,2013-03-29 13:00:00,
2013-03-29 09:01:00,42.2,31.3,30.38,WNW,292,0.0,1.0,65,0.00,,---,0.00,VWS V14.01,2013-03-29 13:01:00,
2013-03-29 09:02:00,42.3,31.4,30.38,NW,325,4.0,4.0,65,0.00,,---,0.00,VWS V14.01,2013-03-29 13:02:00,
2013-03-29 09:03:00,42.4,31.1,30.38,WNW,284,1.0,4.0,64,0.00,,---,0.00,VWS V14.01,2013-03-29 13:03:00,
2013-03-29 09:04:00,42.5,30.8,30.38,WNW,284,1.0,1.0,63,0.00,,---,0.00,VWS V14.01,2013-03-29 13:04:00,
2013-03-29 09:05:00,42.7,31.4,30.38,West,267,2.0,2.0,64,0.00,,---,0.00,VWS V14.01,2013-03-29 13:05:00,
2013-03-29 09:06:00,42.9,31.2,30.38,WNW,292,3.0,3.0,63,0.00,,---,0.00,VWS V14.01,2013-03-29 13:06:00,
2013-03-29 09:07:00,43.0,31.3,30.38,West,280,2.0,3.0,63,0.00,,---,0.00,VWS V14.01,2013-03-29 13:07:00,
2013-03-29 09:08:00,43.1,31.0,30.38,West,261,3.0,3.0,62,0.00,,---,0.00,VWS V14.01,2013-03-29 13:08:00,
2013-03-29 09:09:00,43.2,30.7,30.38,WNW,288,3.0,3.0,61,0.00,,---,0.00,VWS V14.01,2013-03-29 13:09:00,
2013-03-29 09:10:00,43.3,30.4,30.38,West,276,3.0,4.0,60,0.00,,---,0.00,VWS V14.01,2013-03-29 13:10:00,
2013-03-29 09:11:00,43.4,30.5,30.38,West,265,4.0,4.0,60,0.00,,---,0.00,VWS V14.01,2013-03-29 13:11:00,
2013-03-29 09:12:00,43.5,30.1,30.38,West,277,3.0,4.0,59,0.00,,---,0.00,VWS V14.01,2013-03-29 13:12:00,
2013-03-29 09:13:00,43.6,30.2,30.38,WNW,284,2.0,3.0,59,0.00,,---,0.00,VWS V14.01,2013-03-29 13:13:00,
2013-03-29 09:14:00,43.7,30.3,30.38,WNW,283,1.0,3.0,59,0.00,,---,0.00,VWS V14.01,2013-03-29 13:14:00,
2013-03-29 09:15:00,43.9,30.5,30.38,WNW,284,3.0,4.0,59,0.00,,---,0.00,VWS V14.01,2013-03-29 13:15:00,
2013-03-29 09:16:00,44.0,30.2,30.38,West,271,2.0,4.0,58,0.00,,---,0.00,VWS V14.01,2013-03-29 13:16:00,
2013-03-29 09:17:00,44.2,30.4,30.38,WNW,297,1.0,2.0,58,0.00,,---,0.00,VWS V14.01,2013-03-29 13:17:00,
2013-03-29 09:18:00,44.3,30.5,30.38,WNW,288,1.0,2.0,58,0.00,,---,0.00,VWS V14.01,2013-03-29 13:18:00,
2013-03-29 09:19:00,44.5,30.2,30.38,WNW,286,1.0,3.0,57,0.00,,---,0.00,VWS V14.01,2013-03-29 13:19:00,
2013-03-29 09:20:00,44.6,29.9,30.38,West,275,3.0,4.0,56,0.00,,---,0.00,VWS V14.01,2013-03-29 13:20:00,
2013-03-29 09:21:00,44.7,30.0,30.38,West,263,4.0,4.0,56,0.00,,---,0.00,VWS V14.01,2013-03-29 13:21:00,
2013-03-29 09:22:00,44.8,30.1,30.38,WSW,244,3.0,5.0,56,0.00,,---,0.00,VWS V14.01,2013-03-29 13:22:00,
2013-03-29 09:23:00,44.9,29.7,30.38,West,273,1.0,3.0,55,0.00,,---,0.00,VWS V14.01,2013-03-29 13:23:00,
2013-03-29 09:24:00,45.0,30.3,30.38,West,277,3.0,4.0,56,0.00,,---,0.00,VWS V14.01,2013-03-29 13:24:00,
2013-03-29 09:25:00,45.1,29.9,30.38,West,281,2.0,3.0,55,0.00,,---,0.00,VWS V14.01,2013-03-29 13:25:00,
2013-03-29 09:26:00,45.2,29.6,30.38,WSW,245,1.0,2.0,54,0.00,,---,0.00,VWS V14.01,2013-03-29 13:26:00,
2013-03-29 09:27:00,45.3,30.1,30.38,West,268,0.0,1.0,55,0.00,,---,0.00,VWS V14.01,2013-03-29 13:27:00,
2013-03-29 09:28:00,45.4,30.2,30.38,West,268,0.0,0.0,55,0.00,,---,0.00,VWS V14.01,2013-03-29 13:28:00,
2013-03-29 09:29:00,45.7,30.9,30.38,West,262,1.0,1.0,56,0.00,,---,0.00,VWS V14.01,2013-03-29 13:29:00,
2013-03-29 09:30:00,45.9,30.7,30.38,West,276,1.0,3.0,55,0.00,,---,0.00,VWS V14.01,2013-03-29 13:30:00,
2013-03-29 09:31:00,46.0,29.8,30.38,WNW,282,1.0,2.0,53,0.00,,---,0.00,VWS V14.01,2013-03-29 13:31:00,
2013-03-29 09:32:00,46.1,29.9,30.38,West,276,1.0,2.0,53,0.00,,---,0.00,VWS V14.01,2013-03-29 13:32:00,
2013-03-29 09:33:00,46.3,30.1,30.38,NNW,335,2.0,2.0,53,0.00,,---,0.00,VWS V14.01,2013-03-29 13:33:00,
2013-03-29 09:34:00,46.4,29.8,30.38,WSW,256,2.0,4.0,52,0.00,,---,0.00,VWS V14.01,2013-03-29 13:34:00,
2013-03-29 09:35:00,46.6,29.9,30.38,NNW,327,1.0,1.0,52,0.00,,---,0.00,VWS V14.01,2013-03-29 13:35:00,
2013-03-29 09:36:00,46.7,29.5,30.38,NNE,32,2.0,3.0,51,0.00,,---,0.00,VWS V14.01,2013-03-29 13:36:00,
2013-03-29 09:37:00,46.9,29.7,30.38,North,350,2.0,3.0,51,0.00,,---,0.00,VWS V14.01,2013-03-29 13:37:00,
2013-03-29 09:38:00,47.1,29.4,30.38,NNW,341,2.0,4.0,50,0.00,,---,0.00,VWS V14.01,2013-03-29 13:38:00,
2013-03-29 09:39:00,47.2,29.0,30.38,West,262,1.0,3.0,49,0.00,,---,0.00,VWS V14.01,2013-03-29 13:39:00,
2013-03-29 09:40:00,47.4,29.2,30.38,North,360,1.0,3.0,49,0.00,,---,0.00,VWS V14.01,2013-03-29 13:40:00,
2013-03-29 09:41:00,47.5,28.3,30.38,NNE,13,2.0,2.0,47,0.00,,---,0.00,VWS V14.01,2013-03-29 13:41:00,
2013-03-29 09:42:00,47.6,28.9,30.38,NNE,29,5.0,5.0,48,0.00,,---,0.00,VWS V14.01,2013-03-29 13:42:00,
2013-03-29 09:43:00,47.6,28.9,30.38,NNW,342,3.0,5.0,48,0.00,,---,0.00,VWS V14.01,2013-03-29 13:43:00,
2013-03-29 09:44:00,47.6,28.9,30.38,West,272,4.0,4.0,48,0.00,,---,0.00,VWS V14.01,2013-03-29 13:44:00,
2013-03-29 09:45:00,47.7,29.0,30.38,NNE,18,3.0,4.0,48,0.00,,---,0.00,VWS V14.01,2013-03-29 13:45:00,
2013-03-29 09:46:00,47.7,29.0,30.38,NNE,12,4.0,4.0,48,0.00,,---,0.00,VWS V14.01,2013-03-29 13:46:00,
2013-03-29 09:47:00,47.8,28.6,30.38,NNE,23,3.0,4.0,47,0.00,,---,0.00,VWS V14.01,2013-03-29 13:47:00,
2013-03-29 09:48:00,47.8,28.6,30.38,NE,34,2.0,3.0,47,0.00,,---,0.00,VWS V14.01,2013-03-29 13:48:00,
2013-03-29 09:49:00,47.9,28.7,30.38,WSW,257,1.0,2.0,47,0.00,,---,0.00,VWS V14.01,2013-03-29 13:49:00,
2013-03-29 09:50:00,48.0,28.8,30.38,NNE,24,1.0,3.0,47,0.00,,---,0.00,VWS V14.01,2013-03-29 13:50:00,
2013-03-29 09:51:00,48.1,28.8,30.38,NNE,29,2.0,2.0,47,0.00,,---,0.00,VWS V14.01,2013-03-29 13:51:00,
2013-03-29 09:52:00,48.3,28.5,30.38,NNW,329,1.0,2.0,46,0.00,,---,0.00,VWS V14.01,2013-03-29 13:52:00,
2013-03-29 09:53:00,48.3,28.5,30.38,WNW,300,2.0,3.0,46,0.00,,---,0.00,VWS V14.01,2013-03-29 13:53:00,
2013-03-29 09:54:00,48.4,28.0,30.38,NW,310,2.0,3.0,45,0.00,,---,0.00,VWS V14.01,2013-03-29 13:54:00,
2013-03-29 09:55:00,48.4,28.1,30.38,NNE,32,2.0,3.0,45,0.00,,---,0.00,VWS V14.01,2013-03-29 13:55:00,
2013-03-29 09:56:00,48.6,28.8,30.38,NNE,27,2.0,3.0,46,0.00,,---,0.00,VWS V14.01,2013-03-29 13:56:00,
2013-03-29 09:57:00,48.6,28.2,30.37,NNE,18,2.0,3.0,45,0.00,,---,0.00,VWS V14.01,2013-03-29 13:57:00,
2013-03-29 09:58:00,48.7,28.3,30.37,WNW,287,1.0,2.0,45,0.00,,---,0.00,VWS V14.01,2013-03-29 13:58:00,
2013-03-29 09:59:00,48.7,28.3,30.38,NE,48,3.0,4.0,45,0.00,,---,0.00,VWS V14.01,2013-03-29 13:59:00,
2013-03-29 10:00:00,48.7,28.3,30.37,North,349,3.0,4.0,45,0.00,,---,0.00,VWS V14.01,2013-03-29 14:00:00,
2013-03-29 10:01:00,48.8,28.4,30.37,NNE,24,2.0,3.0,45,0.00,,---,0.00,VWS V14.01,2013-03-29 14:01:00,
2013-03-29 10:02:00,48.8,28.4,30.38,West,263,4.0,5.0,45,0.00,,---,0.00,VWS V14.01,2013-03-29 14:02:00,
2013-03-29 10:03:00,48.8,27.9,30.37,WNW,287,5.0,5.0,44,0.00,,---,0.00,VWS V14.01,2013-03-29 14:03:00,
2013-03-29 10:04:00,48.7,27.8,30.38,WNW,290,4.0,5.0,44,0.00,,---,0.00,VWS V14.01,2013-03-29 14:04:00,
2013-03-29 10:05:00,48.7,27.8,30.38,WNW,292,3.0,6.0,44,0.00,,---,0.00,VWS V14.01,2013-03-29 14:05:00,
2013-03-29 10:06:00,48.7,27.2,30.38,West,274,3.0,5.0,43,0.00,,---,0.00,VWS V14.01,2013-03-29 14:06:00,
2013-03-29 10:07:00,48.7,27.8,30.37,West,280,2.0,3.0,44,0.00,,---,0.00,VWS V14.01,2013-03-29 14:07:00,
2013-03-29 10:08:00,48.7,27.8,30.38,West,275,4.0,4.0,44,0.00,,---,0.00,VWS V14.01,2013-03-29 14:08:00,
2013-03-29 10:09:00,48.7,27.8,30.37,West,269,3.0,5.0,44,0.00,,---,0.00,VWS V14.01,2013-03-29 14:09:00,
2013-03-29 10:10:00,48.8,28.4,30.37,West,279,3.0,5.0,45,0.00,,---,0.00,VWS V14.01,2013-03-29 14:10:00,
2013-03-29 10:11:00,48.9,27.4,30.37,West,267,5.0,5.0,43,0.00,,---,0.00,VWS V14.01,2013-03-29 14:11:00,
2013-03-29 10:12:00,49.0,27.5,30.37,WNW,290,3.0,6.0,43,0.00,,---,0.00,VWS V14.01,2013-03-29 14:12:00,
2013-03-29 10:13:00,48.9,27.4,30.37,WSW,249,2.0,4.0,43,0.00,,---,0.00,VWS V14.01,2013-03-29 14:13:00,
2013-03-29 10:14:00,49.0,27.5,30.37,SW,236,1.0,4.0,43,0.00,,---,0.00,VWS V14.01,2013-03-29 14:14:00,
2013-03-29 10:15:00,49.1,27.6,30.37,NNE,13,1.0,3.0,43,0.00,,---,0.00,VWS V14.01,2013-03-29 14:15:00,
2013-03-29 10:16:00,49.2,27.7,30.37,NNW,327,3.0,5.0,43,0.00,,---,0.00,VWS V14.01,2013-03-29 14:16:00,
2013-03-29 10:17:00,49.3,27.2,30.37,NW,306,2.0,3.0,42,0.00,,---,0.00,VWS V14.01,2013-03-29 14:17:00,
2013-03-29 10:18:00,49.3,27.8,30.37,NNW,342,2.0,2.0,43,0.00,,---,0.00,VWS V14.01,2013-03-29 14:18:00,
2013-03-29 10:19:00,49.5,27.4,30.37,NW,311,3.0,5.0,42,0.00,,---,0.00,VWS V14.01,2013-03-29 14:19:00,
2013-03-29 10:20:00,49.6,27.5,30.37,WNW,302,0.0,3.0,42,0.00,,---,0.00,VWS V14.01,2013-03-29 14:20:00,
2013-03-29 10:21:00,49.7,27.6,30.37,NNE,18,2.0,2.0,42,0.00,,---,0.00,VWS V14.01,2013-03-29 14:21:00,
2013-03-29 10:22:00,49.8,27.6,30.37,NE,38,3.0,3.0,42,0.00,,---,0.00,VWS V14.01,2013-03-29 14:22:00,
2013-03-29 10:23:00,49.9,27.7,30.37,WSW,254,6.0,6.0,42,0.00,,---,0.00,VWS V14.01,2013-03-29 14:23:00,
2013-03-29 10:24:00,49.9,27.1,30.37,SW,233,8.0,8.0,41,0.00,,---,0.00,VWS V14.01,2013-03-29 14:24:00,
2013-03-29 10:25:00,49.9,27.2,30.37,WNW,291,6.0,6.0,41,0.00,,---,0.00,VWS V14.01,2013-03-29 14:25:00,
2013-03-29 10:26:00,49.7,27.6,30.37,West,271,3.0,7.0,42,0.00,,---,0.00,VWS V14.01,2013-03-29 14:26:00,
2013-03-29 10:27:00,49.7,27.6,30.37,WSW,250,3.0,5.0,42,0.00,,---,0.00,VWS V14.01,2013-03-29 14:27:00,
2013-03-29 10:28:00,49.8,27.6,30.37,WSW,238,4.0,5.0,42,0.00,,---,0.00,VWS V14.01,2013-03-29 14:28:00,
2013-03-29 10:29:00,49.8,28.2,30.37,WSW,249,3.0,4.0,43,0.00,,---,0.00,VWS V14.01,2013-03-29 14:29:00,
2013-03-29 10:30:00,49.9,27.7,30.37,WNW,288,2.0,5.0,42,0.00,,---,0.00,VWS V14.01,2013-03-29 14:30:00,
2013-03-29 10:31:00,49.9,27.7,30.37,West,278,5.0,5.0,42,0.00,,---,0.00,VWS V14.01,2013-03-29 14:31:00,
2013-03-29 10:32:00,49.9,27.2,30.37,WNW,284,6.0,6.0,41,0.00,,---,0.00,VWS V14.01,2013-03-29 14:32:00,
2013-03-29 10:33:00,49.8,27.1,30.37,West,280,10.0,10.0,41,0.00,,---,0.00,VWS V14.01,2013-03-29 14:33:00,
2013-03-29 10:34:00,49.7,27.0,30.37,WSW,253,6.0,10.0,41,0.00,,---,0.00,VWS V14.01,2013-03-29 14:34:00,
2013-03-29 10:35:00,49.7,27.0,30.37,WNW,299,4.0,7.0,41,0.00,,---,0.00,VWS V14.01,2013-03-29 14:35:00,
2013-03-29 10:36:00,49.7,27.6,30.37,West,265,2.0,4.0,42,0.00,,---,0.00,VWS V14.01,2013-03-29 14:36:00,
2013-03-29 10:37:00,49.8,27.1,30.37,SW,218,2.0,4.0,41,0.00,,---,0.00,VWS V14.01,2013-03-29 14:37:00,
2013-03-29 10:38:00,49.8,27.6,30.37,West,276,5.0,5.0,42,0.00,,---,0.00,VWS V14.01,2013-03-29 14:38:00,
2013-03-29 10:39:00,49.7,27.6,30.37,West,277,3.0,5.0,42,0.00,,---,0.00,VWS V14.01,2013-03-29 14:39:00,
2013-03-29 10:40:00,49.9,28.3,30.37,WSW,249,3.0,5.0,43,0.00,,---,0.00,VWS V14.01,2013-03-29 14:40:00,
2013-03-29 10:41:00,49.8,27.6,30.37,West,272,6.0,7.0,42,0.00,,---,0.00,VWS V14.01,2013-03-29 14:41:00,
2013-03-29 10:42:00,49.8,27.6,30.37,West,263,6.0,7.0,42,0.00,,---,0.00,VWS V14.01,2013-03-29 14:42:00,
2013-03-29 10:43:00,49.8,27.6,30.37,West,265,4.0,9.0,42,0.00,,---,0.00,VWS V14.01,2013-03-29 14:43:00,
2013-03-29 10:44:00,49.9,28.3,30.37,West,271,3.0,4.0,43,0.00,,---,0.00,VWS V14.01,2013-03-29 14:44:00,
2013-03-29 10:45:00,50.0,27.8,30.37,NW,304,1.0,4.0,42,0.00,,---,0.00,VWS V14.01,2013-03-29 14:45:00,
2013-03-29 10:46:00,50.1,27.3,30.37,West,271,0.0,1.0,41,0.00,,---,0.00,VWS V14.01,2013-03-29 14:46:00,
2013-03-29 10:47:00,50.1,27.9,30.36,NW,306,0.0,1.0,42,0.00,,---,0.00,VWS V14.01,2013-03-29 14:47:00,
2013-03-29 10:48:00,50.3,28.1,30.36,NE,48,2.0,3.0,42,0.00,,---,0.00,VWS V14.01,2013-03-29 14:48:00,
2013-03-29 10:49:00,50.5,27.7,30.37,NE,36,5.0,6.0,41,0.00,,---,0.00,VWS V14.01,2013-03-29 14:49:00,
2013-03-29 10:50:00,50.5,27.1,30.36,North,355,2.0,4.0,40,0.00,,---,0.00,VWS V14.01,2013-03-29 14:50:00,
2013-03-29 10:51:00,50.6,27.8,30.36,NNE,24,2.0,4.0,41,0.00,,---,0.00,VWS V14.01,2013-03-29 14:51:00,
2013-03-29 10:52:00,50.8,28.5,30.36,NW,311,2.0,6.0,42,0.00,,---,0.00,VWS V14.01,2013-03-29 14:52:00,
2013-03-29 10:53:00,50.8,28.5,30.36,WNW,284,2.0,2.0,42,0.00,,---,0.00,VWS V14.01,2013-03-29 14:53:00,
2013-03-29 10:54:00,50.9,28.1,30.36,West,271,3.0,3.0,41,0.00,,---,0.00,VWS V14.01,2013-03-29 14:54:00,
2013-03-29 10:55:00,50.9,28.1,30.36,NE,35,3.0,3.0,41,0.00,,---,0.00,VWS V14.01,2013-03-29 14:55:00,
2013-03-29 10:56:00,51.0,28.1,30.36,SSW,194,1.0,3.0,41,0.00,,---,0.00,VWS V14.01,2013-03-29 14:56:00,
2013-03-29 10:57:00,51.1,28.2,30.36,NE,52,0.0,2.0,41,0.00,,---,0.00,VWS V14.01,2013-03-29 14:57:00,
2013-03-29 10:58:00,51.2,28.3,30.36,WSW,242,1.0,1.0,41,0.00,,---,0.00,VWS V14.01,2013-03-29 14:58:00,
2013-03-29 10:59:00,51.3,28.4,30.36,WSW,242,2.0,2.0,41,0.00,,---,0.00,VWS V14.01,2013-03-29 14:59:00,
2013-03-29 11:00:00,51.4,28.5,30.36,WNW,288,5.0,5.0,41,0.00,,---,0.00,VWS V14.01,2013-03-29 15:00:00,
2013-03-29 11:01:00,51.5,28.0,30.36,West,279,4.0,5.0,40,0.00,,---,0.00,VWS V14.01,2013-03-29 15:01:00,
2013-03-29 11:02:00,51.5,27.4,30.36,NNW,334,3.0,6.0,39,0.00,,---,0.00,VWS V14.01,2013-03-29 15:02:00,
2013-03-29 11:03:00,51.6,28.1,30.36,West,267,5.0,5.0,40,0.00,,---,0.00,VWS V14.01,2013-03-29 15:03:00,
2013-03-29 11:04:00,51.6,28.1,30.36,WSW,245,2.0,7.0,40,0.00,,---,0.00,VWS V14.01,2013-03-29 15:04:00,
2013-03-29 11:05:00,51.5,27.4,30.36,West,264,4.0,7.0,39,0.00,,---,0.00,VWS V14.01,2013-03-29 15:05:00,
2013-03-29 11:06:00,51.4,27.3,30.36,WNW,288,1.0,6.0,39,0.00,,---,0.00,VWS V14.01,2013-03-29 15:06:00,
2013-03-29 11:07:00,51.3,27.8,30.36,West,280,2.0,3.0,40,0.00,,---,0.00,VWS V14.01,2013-03-29 15:07:00,
2013-03-29 11:08:00,51.2,27.7,30.36,NW,318,3.0,4.0,40,0.00,,---,0.00,VWS V14.01,2013-03-29 15:08:00,
2013-03-29 11:09:00,51.2,27.7,30.36,NW,314,0.0,3.0,40,0.00,,---,0.00,VWS V14.01,2013-03-29 15:09:00,
2013-03-29 11:10:00,51.4,28.5,30.36,NW,304,0.0,1.0,41,0.00,,---,0.00,VWS V14.01,2013-03-29 15:10:00,
2013-03-29 11:11:00,51.6,28.1,30.36,NW,311,0.0,1.0,40,0.00,,---,0.00,VWS V14.01,2013-03-29 15:11:00,
2013-03-29 11:12:00,51.9,28.4,30.36,West,263,3.0,3.0,40,0.00,,---,0.00,VWS V14.01,2013-03-29 15:12:00,
2013-03-29 11:13:00,52.0,27.8,30.36,WSW,247,1.0,3.0,39,0.00,,---,0.00,VWS V14.01,2013-03-29 15:13:00,
2013-03-29 11:14:00,52.1,27.9,30.36,SW,215,2.0,4.0,39,0.00,,---,0.00,VWS V14.01,2013-03-29 15:14:00,
2013-03-29 11:15:00,52.1,27.3,30.36,South,188,4.0,7.0,38,0.00,,---,0.00,VWS V14.01,2013-03-29 15:15:00,
2013-03-29 11:16:00,52.1,26.6,30.36,WNW,284,4.0,4.0,37,0.00,,---,0.00,VWS V14.01,2013-03-29 15:16:00,
2013-03-29 11:17:00,52.1,27.3,30.36,West,275,4.0,6.0,38,0.00,,---,0.00,VWS V14.01,2013-03-29 15:17:00,
2013-03-29 11:18:00,52.0,27.2,30.36,West,263,7.0,8.0,38,0.00,,---,0.00,VWS V14.01,2013-03-29 15:18:00,
2013-03-29 11:19:00,52.0,26.5,30.36,WSW,244,7.0,9.0,37,0.00,,---,0.00,VWS V14.01,2013-03-29 15:19:00,
2013-03-29 11:20:00,52.0,27.2,30.36,WSW,244,8.0,11.0,38,0.00,,---,0.00,VWS V14.01,2013-03-29 15:20:00,
2013-03-29 11:21:00,51.8,27.0,30.36,WSW,250,4.0,10.0,38,0.00,,---,0.00,VWS V14.01,2013-03-29 15:21:00,
2013-03-29 11:22:00,51.8,27.0,30.36,West,265,5.0,7.0,38,0.00,,---,0.00,VWS V14.01,2013-03-29 15:22:00,
2013-03-29 11:23:00,51.7,26.9,30.36,WNW,289,4.0,8.0,38,0.00,,---,0.00,VWS V14.01,2013-03-29 15:23:00,
2013-03-29 11:24:00,51.6,26.8,30.36,SSW,211,5.0,5.0,38,0.00,,---,0.00,VWS V14.01,2013-03-29 15:24:00,
2013-03-29 11:25:00,51.6,27.5,30.36,West,267,5.0,7.0,39,0.00,,---,0.00,VWS V14.01,2013-03-29 15:25:00,
2013-03-29 11:26:00,51.6,27.5,30.36,West,280,4.0,8.0,39,0.00,,---,0.00,VWS V14.01,2013-03-29 15:26:00,
2013-03-29 11:27:00,51.6,27.5,30.36,SW,229,5.0,6.0,39,0.00,,---,0.00,VWS V14.01,2013-03-29 15:27:00,
2013-03-29 11:28:00,51.6,27.5,30.36,WNW,287,9.0,11.0,39,0.00,,---,0.00,VWS V14.01,2013-03-29 15:28:00,
2013-03-29 11:29:00,51.6,27.5,30.36,South,169,3.0,9.0,39,0.00,,---,0.00,VWS V14.01,2013-03-29 15:29:00,
2013-03-29 11:30:00,51.6,27.5,30.36,SW,219,4.0,6.0,39,0.00,,---,0.00,VWS V14.01,2013-03-29 15:30:00,
2013-03-29 11:31:00,51.6,27.5,30.36,WSW,244,7.0,7.0,39,0.00,,---,0.00,VWS V14.01,2013-03-29 15:31:00,
2013-03-29 11:32:00,51.8,27.6,30.36,West,268,4.0,8.0,39,0.00,,---,0.00,VWS V14.01,2013-03-29 15:32:00,
2013-03-29 11:33:00,51.9,27.7,30.36,West,281,4.0,9.0,39,0.00,,---,0.00,VWS V14.01,2013-03-29 15:33:00,
2013-03-29 11:34:00,51.9,27.7,30.36,West,276,6.0,9.0,39,0.00,,---,0.00,VWS V14.01,2013-03-29 15:34:00,
2013-03-29 11:35:00,52.0,27.8,30.36,WNW,286,11.0,11.0,39,0.00,,---,0.00,VWS V14.01,2013-03-29 15:35:00,
2013-03-29 11:36:00,51.9,27.7,30.36,West,277,6.0,11.0,39,0.00,,---,0.00,VWS V14.01,2013-03-29 15:36:00,
2013-03-29 11:37:00,51.9,27.1,30.36,NNW,338,3.0,8.0,38,0.00,,---,0.00,VWS V14.01,2013-03-29 15:37:00,
2013-03-29 11:38:00,51.9,27.7,30.36,SW,219,3.0,3.0,39,0.00,,---,0.00,VWS V14.01,2013-03-29 15:38:00,
2013-03-29 11:39:00,52.0,27.8,30.36,SW,232,8.0,8.0,39,0.00,,---,0.00,VWS V14.01,2013-03-29 15:39:00,
2013-03-29 11:40:00,52.0,27.8,30.36,WSW,247,4.0,8.0,39,0.00,,---,0.00,VWS V14.01,2013-03-29 15:40:00,
2013-03-29 11:41:00,52.0,27.2,30.36,West,281,1.0,7.0,38,0.00,,---,0.00,VWS V14.01,2013-03-29 15:41:00,
2013-03-29 11:42:00,52.1,27.9,30.36,NW,310,3.0,5.0,39,0.00,,---,0.00,VWS V14.01,2013-03-29 15:42:00,
2013-03-29 11:43:00,52.4,27.6,30.36,NE,44,5.0,10.0,38,0.00,,---,0.00,VWS V14.01,2013-03-29 15:43:00,
2013-03-29 11:44:00,52.4,27.6,30.36,NNE,30,7.0,10.0,38,0.00,,---,0.00,VWS V14.01,2013-03-29 15:44:00,
2013-03-29 11:45:00,52.3,27.5,30.36,NE,49,6.0,11.0,38,0.00,,---,0.00,VWS V14.01,2013-03-29 15:45:00,
2013-03-29 11:46:00,52.2,27.4,30.36,NE,44,2.0,6.0,38,0.00,,---,0.00,VWS V14.01,2013-03-29 15:46:00,
2013-03-29 11:47:00,52.1,27.3,30.36,NNW,331,4.0,4.0,38,0.00,,---,0.00,VWS V14.01,2013-03-29 15:47:00,
2013-03-29 11:48:00,52.1,27.3,30.36,NW,321,3.0,11.0,38,0.00,,---,0.00,VWS V14.01,2013-03-29 15:48:00,
2013-03-29 11:49:00,52.1,27.3,30.36,WNW,286,5.0,11.0,38,0.00,,---,0.00,VWS V14.01,2013-03-29 15:49:00,
2013-03-29 11:50:00,52.0,27.2,30.36,West,279,6.0,6.0,38,0.00,,---,0.00,VWS V14.01,2013-03-29 15:50:00,
2013-03-29 11:51:00,52.1,27.9,30.36,WSW,242,4.0,8.0,39,0.00,,---,0.00,VWS V14.01,2013-03-29 15:51:00,
2013-03-29 11:52:00,52.2,27.4,30.35,WSW,252,13.0,13.0,38,0.00,,---,0.00,VWS V14.01,2013-03-29 15:52:00,
2013-03-29 11:53:00,52.2,27.4,30.36,West,263,4.0,6.0,38,0.00,,---,0.00,VWS V14.01,2013-03-29 15:53:00,
2013-03-29 11:54:00,52.2,27.4,30.36,West,269,5.0,6.0,38,0.00,,---,0.00,VWS V14.01,2013-03-29 15:54:00,
2013-03-29 11:55:00,52.2,27.4,30.36,West,275,7.0,11.0,38,0.00,,---,0.00,VWS V14.01,2013-03-29 15:55:00,
2013-03-29 11:56:00,52.1,27.3,30.35,NW,305,3.0,7.0,38,0.00,,---,0.00,VWS V14.01,2013-03-29 15:56:00,
2013-03-29 11:57:00,52.2,28.0,30.35,West,267,3.0,3.0,39,0.00,,---,0.00,VWS V14.01,2013-03-29 15:57:00,
2013-03-29 11:58:00,52.4,27.6,30.35,West,281,6.0,6.0,38,0.00,,---,0.00,VWS V14.01,2013-03-29 15:58:00,
2013-03-29 11:59:00,52.4,27.6,30.35,WNW,284,8.0,8.0,38,0.00,,---,0.00,VWS V14.01,2013-03-29 15:59:00,
2013-03-29 12:00:00,52.5,27.6,30.35,West,264,5.0,12.0,38,0.00,,---,0.00,VWS V14.01,2013-03-29 16:00:00,
2013-03-29 12:01:00,52.6,28.4,30.34,WNW,286,7.0,10.0,39,0.00,,---,0.00,VWS V14.01,2013-03-29 16:01:00,
2013-03-29 12:02:00,52.8,27.9,30.35,WSW,242,4.0,8.0,38,0.00,,---,0.00,VWS V14.01,2013-03-29 16:02:00,
2013-03-29 12:03:00,52.9,27.4,30.34,West,276,2.0,7.0,37,0.00,,---,0.00,VWS V14.01,2013-03-29 16:03:00,
2013-03-29 12:04:00,53.0,27.4,30.34,SW,229,5.0,7.0,37,0.00,,---,0.00,VWS V14.01,2013-03-29 16:04:00,
2013-03-29 12:05:00,53.2,28.3,30.34,NNW,347,7.0,7.0,38,0.00,,---,0.00,VWS V14.01,2013-03-29 16:05:00,
2013-03-29 12:06:00,53.4,27.8,30.34,NNE,22,7.0,8.0,37,0.00,,---,0.00,VWS V14.01,2013-03-29 16:06:00,
2013-03-29 12:07:00,53.4,27.1,30.34,NNW,335,2.0,7.0,36,0.00,,---,0.00,VWS V14.01,2013-03-29 16:07:00,
2013-03-29 12:08:00,53.2,27.0,30.34,WNW,295,7.0,9.0,36,0.00,,---,0.00,VWS V14.01,2013-03-29 16:08:00,
2013-03-29 12:09:00,53.2,27.0,30.34,West,280,7.0,9.0,36,0.00,,---,0.00,VWS V14.01,2013-03-29 16:09:00,
2013-03-29 12:10:00,53.2,27.0,30.34,NNE,23,2.0,10.0,36,0.00,,---,0.00,VWS V14.01,2013-03-29 16:10:00,
2013-03-29 12:11:00,53.3,27.0,30.34,WNW,292,5.0,6.0,36,0.00,,---,0.00,VWS V14.01,2013-03-29 16:11:00,
2013-03-29 12:12:00,53.3,27.0,30.34,WNW,284,5.0,6.0,36,0.00,,---,0.00,VWS V14.01,2013-03-29 16:12:00,
2013-03-29 12:13:00,53.3,27.0,30.34,NE,44,3.0,3.0,36,0.00,,---,0.00,VWS V14.01,2013-03-29 16:13:00,
2013-03-29 12:14:00,53.3,27.7,30.34,NE,35,3.0,3.0,37,0.00,,---,0.00,VWS V14.01,2013-03-29 16:14:00,
2013-03-29 12:15:00,53.4,27.1,30.34,NNE,29,2.0,3.0,36,0.00,,---,0.00,VWS V14.01,2013-03-29 16:15:00,
2013-03-29 12:16:00,53.7,28.1,30.34,North,355,4.0,5.0,37,0.00,,---,0.00,VWS V14.01,2013-03-29 16:16:00,
2013-03-29 12:17:00,53.9,28.2,30.34,NNE,30,3.0,4.0,37,0.00,,---,0.00,VWS V14.01,2013-03-29 16:17:00,
2013-03-29 12:18:00,54.2,27.9,30.34,West,280,4.0,5.0,36,0.00,,---,0.00,VWS V14.01,2013-03-29 16:18:00,
2013-03-29 12:19:00,54.2,27.9,30.34,WSW,246,2.0,5.0,36,0.00,,---,0.00,VWS V14.01,2013-03-29 16:19:00,
2013-03-29 12:20:00,54.2,27.9,30.34,West,271,3.0,4.0,36,0.00,,---,0.00,VWS V14.01,2013-03-29 16:20:00,
2013-03-29 12:21:00,54.1,27.8,30.35,West,267,1.0,6.0,36,0.00,,---,0.00,VWS V14.01,2013-03-29 16:21:00,
2013-03-29 12:22:00,54.2,27.9,30.34,SW,233,3.0,5.0,36,0.00,,---,0.00,VWS V14.01,2013-03-29 16:22:00,
2013-03-29 12:23:00,54.2,27.2,30.34,WNW,290,4.0,5.0,35,0.00,,---,0.00,VWS V14.01,2013-03-29 16:23:00,
2013-03-29 12:24:00,54.2,27.2,30.34,West,275,5.0,5.0,35,0.00,,---,0.00,VWS V14.01,2013-03-29 16:24:00,
2013-03-29 12:25:00,54.2,27.9,30.34,WSW,242,8.0,8.0,36,0.00,,---,0.00,VWS V14.01,2013-03-29 16:25:00,
2013-03-29 12:26:00,54.2,27.2,30.34,WSW,245,4.0,8.0,35,0.00,,---,0.00,VWS V14.01,2013-03-29 16:26:00,
2013-03-29 12:27:00,54.1,27.1,30.34,SW,236,9.0,9.0,35,0.00,,---,0.00,VWS V14.01,2013-03-29 16:27:00,
2013-03-29 12:28:00,53.9,26.9,30.34,NW,321,1.0,1.0,35,0.00,,---,0.00,VWS V14.01,2013-03-29 16:28:00,
2013-03-29 12:29:00,53.9,26.9,30.34,NW,321,0.0,1.0,35,0.00,,---,0.00,VWS V14.01,2013-03-29 16:29:00,
2013-03-29 12:30:00,53.9,27.6,30.34,WSW,238,6.0,7.0,36,0.00,,---,0.00,VWS V14.01,2013-03-29 16:30:00,
2013-03-29 12:31:00,53.8,27.5,30.34,West,267,3.0,7.0,36,0.00,,---,0.00,VWS V14.01,2013-03-29 16:31:00,
2013-03-29 12:32:00,53.7,26.7,30.34,WSW,258,4.0,6.0,35,0.00,,---,0.00,VWS V14.01,2013-03-29 16:32:00,
2013-03-29 12:33:00,53.5,27.2,30.34,WNW,288,2.0,3.0,36,0.00,,---,0.00,VWS V14.01,2013-03-29 16:33:00,
2013-03-29 12:34:00,53.5,27.2,30.34,WNW,287,5.0,5.0,36,0.00,,---,0.00,VWS V14.01,2013-03-29 16:34:00,
2013-03-29 12:35:00,53.6,28.0,30.34,NNW,334,6.0,8.0,37,0.00,,---,0.00,VWS V14.01,2013-03-29 16:35:00,
2013-03-29 12:36:00,53.8,27.5,30.34,NNE,12,7.0,9.0,36,0.00,,---,0.00,VWS V14.01,2013-03-29 16:36:00,
2013-03-29 12:37:00,53.9,27.6,30.34,NNE,19,5.0,8.0,36,0.00,,---,0.00,VWS V14.01,2013-03-29 16:37:00,
2013-03-29 12:38:00,53.9,26.9,30.33,NNW,344,3.0,4.0,35,0.00,,---,0.00,VWS V14.01,2013-03-29 16:38:00,
2013-03-29 12:39:00,54.0,27.7,30.33,NW,321,4.0,4.0,36,0.00,,---,0.00,VWS V14.01,2013-03-29 16:39:00,
2013-03-29 12:40:00,54.2,28.5,30.33,WSW,257,2.0,4.0,37,0.00,,---,0.00,VWS V14.01,2013-03-29 16:40:00,
2013-03-29 12:41:00,54.4,28.0,30.33,WSW,248,4.0,4.0,36,0.00,,---,0.00,VWS V14.01,2013-03-29 16:41:00,
2013-03-29 12:42:00,54.5,28.1,30.33,WSW,257,3.0,8.0,36,0.00,,---,0.00,VWS V14.01,2013-03-29 16:42:00,
2013-03-29 12:43:00,54.7,27.6,30.33,West,259,3.0,7.0,35,0.00,,---,0.00,VWS V14.01,2013-03-29 16:43:00,
2013-03-29 12:44:00,54.9,28.5,30.33,West,272,6.0,7.0,36,0.00,,---,0.00,VWS V14.01,2013-03-29 16:44:00,
2013-03-29 12:45:00,55.0,27.2,30.33,WSW,241,8.0,8.0,34,0.00,,---,0.00,VWS V14.01,2013-03-29 16:45:00,
2013-03-29 12:46:00,54.9,27.1,30.33,West,260,10.0,10.0,34,0.00,,---,0.00,VWS V14.01,2013-03-29 16:46:00,
2013-03-29 12:47:00,54.7,26.9,30.33,WSW,252,5.0,10.0,34,0.00,,---,0.00,VWS V14.01,2013-03-29 16:47:00,
2013-03-29 12:48:00,54.6,26.8,30.33,WSW,238,6.0,9.0,34,0.00,,---,0.00,VWS V14.01,2013-03-29 16:48:00,
2013-03-29 12:49:00,54.6,26.8,30.33,West,268,7.0,9.0,34,0.00,,---,0.00,VWS V14.01,2013-03-29 16:49:00,
2013-03-29 12:50:00,54.5,26.0,30.33,West,267,5.0,9.0,33,0.00,,---,0.00,VWS V14.01,2013-03-29 16:50:00,
2013-03-29 12:51:00,54.3,26.5,30.33,WNW,282,3.0,7.0,34,0.00,,---,0.00,VWS V14.01,2013-03-29 16:51:00,
2013-03-29 12:52:00,54.3,27.2,30.33,NW,314,1.0,5.0,35,0.00,,---,0.00,VWS V14.01,2013-03-29 16:52:00,
2013-03-29 12:53:00,54.4,27.3,30.33,West,269,5.0,8.0,35,0.00,,---,0.00,VWS V14.01,2013-03-29 16:53:00,
2013-03-29 12:54:00,54.4,27.3,30.33,WNW,291,6.0,8.0,35,0.00,,---,0.00,VWS V14.01,2013-03-29 16:54:00,
2013-03-29 12:55:00,54.2,27.2,30.33,West,263,5.0,7.0,35,0.00,,---,0.00,VWS V14.01,2013-03-29 16:55:00,
2013-03-29 12:56:00,54.0,27.0,30.33,SW,226,1.0,5.0,35,0.00,,---,0.00,VWS V14.01,2013-03-29 16:56:00,
2013-03-29 12:57:00,53.8,26.8,30.33,WSW,242,4.0,4.0,35,0.00,,---,0.00,VWS V14.01,2013-03-29 16:57:00,
2013-03-29 12:58:00,53.8,27.5,30.33,NNW,342,3.0,3.0,36,0.00,,---,0.00,VWS V14.01,2013-03-29 16:58:00,
2013-03-29 12:59:00,53.8,27.5,30.33,NNW,340,5.0,5.0,36,0.00,,---,0.00,VWS V14.01,2013-03-29 16:59:00,
2013-03-29 13:00:00,54.1,27.8,30.33,ENE,65,3.0,6.0,36,0.00,,---,0.00,VWS V14.01,2013-03-29 17:00:00,
2013-03-29 13:01:00,54.3,27.9,30.33,NNE,22,2.0,3.0,36,0.00,,---,0.00,VWS V14.01,2013-03-29 17:01:00,
2013-03-29 13:02:00,54.4,28.0,30.33,NNW,331,6.0,6.0,36,0.00,,---,0.00,VWS V14.01,2013-03-29 17:02:00,
2013-03-29 13:03:00,54.6,26.8,30.33,West,275,3.0,6.0,34,0.00,,---,0.00,VWS V14.01,2013-03-29 17:03:00,
2013-03-29 13:04:00,54.6,26.8,30.33,WNW,298,4.0,6.0,34,0.00,,---,0.00,VWS V14.01,2013-03-29 17:04:00,
2013-03-29 13:05:00,54.7,26.9,30.32,WSW,249,4.0,5.0,34,0.00,,---,0.00,VWS V14.01,2013-03-29 17:05:00,
2013-03-29 13:06:00,54.7,26.9,30.32,WNW,284,3.0,6.0,34,0.00,,---,0.00,VWS V14.01,2013-03-29 17:06:00,
2013-03-29 13:07:00,54.9,27.8,30.32,West,281,5.0,6.0,35,0.00,,---,0.00,VWS V14.01,2013-03-29 17:07:00,
2013-03-29 13:08:00,54.9,27.1,30.32,WNW,284,3.0,7.0,34,0.00,,---,0.00,VWS V14.01,2013-03-29 17:08:00,
2013-03-29 13:09:00,55.0,27.2,30.32,NNW,340,7.0,7.0,34,0.00,,---,0.00,VWS V14.01,2013-03-29 17:09:00,
2013-03-29 13:10:00,55.0,27.9,30.32,NE,37,5.0,7.0,35,0.00,,---,0.00,VWS V14.01,2013-03-29 17:10:00,
2013-03-29 13:11:00,55.1,27.3,30.32,NNE,30,3.0,5.0,34,0.00,,---,0.00,VWS V14.01,2013-03-29 17:11:00,
2013-03-29 13:12:00,55.2,28.0,30.31,NNE,13,3.0,5.0,35,0.00,,---,0.00,VWS V14.01,2013-03-29 17:12:00,
2013-03-29 13:13:00,55.4,26.8,30.31,West,269,4.0,8.0,33,0.00,,---,0.00,VWS V14.01,2013-03-29 17:13:00,
2013-03-29 13:14:00,55.4,26.8,30.31,WNW,288,3.0,8.0,33,0.00,,---,0.00,VWS V14.01,2013-03-29 17:14:00,
2013-03-29 13:15:00,55.4,26.8,30.31,West,276,4.0,6.0,33,0.00,,---,0.00,VWS V14.01,2013-03-29 17:15:00,
2013-03-29 13:16:00,55.4,27.5,30.31,SW,217,6.0,12.0,34,0.00,,---,0.00,VWS V14.01,2013-03-29 17:16:00,
2013-03-29 13:17:00,55.4,27.5,30.31,West,271,7.0,10.0,34,0.00,,---,0.00,VWS V14.01,2013-03-29 17:17:00,
2013-03-29 13:18:00,55.0,26.5,30.31,WNW,289,2.0,4.0,33,0.00,,---,0.00,VWS V14.01,2013-03-29 17:18:00,
2013-03-29 13:19:00,55.0,27.2,30.31,WSW,250,6.0,6.0,34,0.00,,---,0.00,VWS V14.01,2013-03-29 17:19:00,
2013-03-29 13:20:00,54.9,27.1,30.31,SW,223,8.0,9.0,34,0.00,,---,0.00,VWS V14.01,2013-03-29 17:20:00,
2013-03-29 13:21:00,54.8,27.0,30.31,West,260,3.0,8.0,34,0.00,,---,0.00,VWS V14.01,2013-03-29 17:21:00,
2013-03-29 13:22:00,54.8,27.0,30.31,West,279,5.0,6.0,34,0.00,,---,0.00,VWS V14.01,2013-03-29 17:22:00,
2013-03-29 13:23:00,55.1,27.3,30.31,NNE,26,5.0,7.0,34,0.00,,---,0.00,VWS V14.01,2013-03-29 17:23:00,
2013-03-29 13:24:00,55.2,27.3,30.31,North,5,4.0,7.0,34,0.00,,---,0.00,VWS V14.01,2013-03-29 17:24:00,
2013-03-29 13:25:00,55.3,26.7,30.31,NW,325,3.0,6.0,33,0.00,,---,0.00,VWS V14.01,2013-03-29 17:25:00,
2013-03-29 13:26:00,55.4,26.8,30.31,NE,46,4.0,5.0,33,0.00,,---,0.00,VWS V14.01,2013-03-29 17:26:00,
2013-03-29 13:27:00,55.5,26.9,30.31,West,264,4.0,7.0,33,0.00,,---,0.00,VWS V14.01,2013-03-29 17:27:00,
2013-03-29 13:28:00,55.4,27.5,30.31,West,272,3.0,3.0,34,0.00,,---,0.00,VWS V14.01,2013-03-29 17:28:00,
2013-03-29 13:29:00,55.5,27.6,30.31,West,273,4.0,4.0,34,0.00,,---,0.00,VWS V14.01,2013-03-29 17:29:00,
2013-03-29 13:30:00,55.5,26.9,30.31,NW,321,4.0,4.0,33,0.00,,---,0.00,VWS V14.01,2013-03-29 17:30:00,
2013-03-29 13:31:00,55.5,26.9,30.31,WNW,290,6.0,6.0,33,0.00,,---,0.00,VWS V14.01,2013-03-29 17:31:00,
2013-03-29 13:32:00,55.5,26.9,30.31,West,265,4.0,8.0,33,0.00,,---,0.00,VWS V14.01,2013-03-29 17:32:00,
2013-03-29 13:33:00,55.6,26.2,30.31,West,271,9.0,10.0,32,0.00,,---,0.00,VWS V14.01,2013-03-29 17:33:00,
2013-03-29 13:34:00,55.5,26.1,30.31,WNW,286,5.0,10.0,32,0.00,,---,0.00,VWS V14.01,2013-03-29 17:34:00,
2013-03-29 13:35:00,55.5,26.1,30.31,West,280,5.0,5.0,32,0.00,,---,0.00,VWS V14.01,2013-03-29 17:35:00,
2013-03-29 13:36:00,55.5,26.1,30.30,WNW,284,3.0,5.0,32,0.00,,---,0.00,VWS V14.01,2013-03-29 17:36:00,
2013-03-29 13:37:00,55.6,26.2,30.30,West,279,8.0,11.0,32,0.00,,---,0.00,VWS V14.01,2013-03-29 17:37:00,
2013-03-29 13:38:00,55.6,26.2,30.30,West,276,9.0,10.0,32,0.00,,---,0.00,VWS V14.01,2013-03-29 17:38:00,
2013-03-29 13:39:00,55.5,26.1,30.30,West,275,7.0,10.0,32,0.00,,---,0.00,VWS V14.01,2013-03-29 17:39:00,
2013-03-29 13:40:00,55.5,26.1,30.30,SW,236,6.0,11.0,32,0.00,,---,0.00,VWS V14.01,2013-03-29 17:40:00,
2013-03-29 13:41:00,55.4,26.0,30.30,WSW,250,7.0,9.0,32,0.00,,---,0.00,VWS V14.01,2013-03-29 17:41:00,
2013-03-29 13:42:00,55.4,26.0,30.30,West,267,4.0,7.0,32,0.00,,---,0.00,VWS V14.01,2013-03-29 17:42:00,
2013-03-29 13:43:00,55.5,26.9,30.30,West,279,10.0,10.0,33,0.00,,---,0.00,VWS V14.01,2013-03-29 17:43:00,
2013-03-29 13:44:00,55.5,26.1,30.30,WSW,248,8.0,10.0,32,0.00,,---,0.00,VWS V14.01,2013-03-29 17:44:00,
2013-03-29 13:45:00,55.6,26.2,30.30,West,270,10.0,13.0,32,0.00,,---,0.00,VWS V14.01,2013-03-29 17:45:00,
2013-03-29 13:46:00,55.6,25.5,30.30,West,270,8.0,12.0,31,0.00,,---,0.00,VWS V14.01,2013-03-29 17:46:00,
2013-03-29 13:47:00,55.7,26.3,30.30,NW,315,4.0,6.0,32,0.00,,---,0.00,VWS V14.01,2013-03-29 17:47:00,
2013-03-29 13:48:00,55.9,26.5,30.30,NW,315,3.0,4.0,32,0.00,,---,0.00,VWS V14.01,2013-03-29 17:48:00,
2013-03-29 13:49:00,56.0,26.6,30.30,NNW,338,6.0,9.0,32,0.00,,---,0.00,VWS V14.01,2013-03-29 17:49:00,
2013-03-29 13:50:00,56.1,25.9,30.30,NNE,22,6.0,8.0,31,0.00,,---,0.00,VWS V14.01,2013-03-29 17:50:00,
2013-03-29 13:51:00,56.2,26.8,30.30,WNW,292,3.0,5.0,32,0.00,,---,0.00,VWS V14.01,2013-03-29 17:51:00,
2013-03-29 13:52:00,56.3,26.1,30.30,NNE,22,4.0,7.0,31,0.00,,---,0.00,VWS V14.01,2013-03-29 17:52:00,
2013-03-29 13:53:00,56.3,26.1,30.30,WNW,292,3.0,5.0,31,0.00,,---,0.00,VWS V14.01,2013-03-29 17:53:00,
2013-03-29 13:54:00,56.4,26.2,30.30,NW,315,4.0,8.0,31,0.00,,---,0.00,VWS V14.01,2013-03-29 17:54:00,
2013-03-29 13:55:00,56.4,26.2,30.30,West,270,3.0,4.0,31,0.00,,---,0.00,VWS V14.01,2013-03-29 17:55:00,
2013-03-29 13:56:00,56.4,26.2,30.30,WSW,248,2.0,6.0,31,0.00,,---,0.00,VWS V14.01,2013-03-29 17:56:00,
2013-03-29 13:57:00,56.4,26.9,30.30,WNW,292,6.0,11.0,32,0.00,,---,0.00,VWS V14.01,2013-03-29 17:57:00,
2013-03-29 13:58:00,56.3,26.1,30.30,West,270,5.0,8.0,31,0.00,,---,0.00,VWS V14.01,2013-03-29 17:58:00,
2013-03-29 13:59:00,56.2,26.0,30.30,West,270,4.0,6.0,31,0.00,,---,0.00,VWS V14.01,2013-03-29 17:59:00,
2013-03-29 14:00:00,56.2,26.8,30.30,NNW,338,4.0,6.0,32,0.00,,---,0.00,VWS V14.01,2013-03-29 18:00:00,
2013-03-29 14:01:00,56.3,26.8,30.29,NNW,338,6.0,7.0,32,0.00,,---,0.00,VWS V14.01,2013-03-29 18:01:00,
2013-03-29 14:02:00,56.5,27.8,30.30,NNW,338,3.0,6.0,33,0.00,,---,0.00,VWS V14.01,2013-03-29 18:02:00,
2013-03-29 14:03:00,56.8,28.0,30.29,NE,45,7.0,9.0,33,0.00,,---,0.00,VWS V14.01,2013-03-29 18:03:00,
2013-03-29 14:04:00,56.9,27.4,30.29,NNE,22,8.0,11.0,32,0.00,,---,0.00,VWS V14.01,2013-03-29 18:04:00,
2013-03-29 14:05:00,56.8,26.5,30.29,NE,45,6.0,8.0,31,0.00,,---,0.00,VWS V14.01,2013-03-29 18:05:00,
2013-03-29 14:06:00,56.5,26.2,30.29,NE,45,5.0,7.0,31,0.00,,---,0.00,VWS V14.01,2013-03-29 18:06:00,
2013-03-29 14:07:00,56.3,26.1,30.29,ENE,68,3.0,5.0,31,0.00,,---,0.00,VWS V14.01,2013-03-29 18:07:00,
2013-03-29 14:08:00,56.1,26.7,30.29,ESE,112,2.0,4.0,32,0.00,,---,0.00,VWS V14.01,2013-03-29 18:08:00,
2013-03-29 14:09:00,56.2,26.8,30.29,NNE,22,6.0,8.0,32,0.00,,---,0.00,VWS V14.01,2013-03-29 18:09:00,
2013-03-29 14:10:00,56.4,26.9,30.28,NE,45,7.0,9.0,32,0.00,,---,0.00,VWS V14.01,2013-03-29 18:10:00,
2013-03-29 14:11:00,56.5,26.2,30.29,NNE,22,5.0,6.0,31,0.00,,---,0.00,VWS V14.01,2013-03-29 18:11:00,
2013-03-29 14:12:00,56.5,26.2,30.29,NE,45,3.0,5.0,31,0.00,,---,0.00,VWS V14.01,2013-03-29 18:12:00,
2013-03-29 14:13:00,56.6,27.1,30.29,ENE,68,3.0,7.0,32,0.00,,---,0.00,VWS V14.01,2013-03-29 18:13:00,
2013-03-29 14:14:00,56.7,26.4,30.28,NNE,22,5.0,11.0,31,0.00,,---,0.00,VWS V14.01,2013-03-29 18:14:00,
2013-03-29 14:15:00,56.7,25.6,30.28,NNE,22,8.0,11.0,30,0.00,,---,0.00,VWS V14.01,2013-03-29 18:15:00,
2013-03-29 14:16:00,56.8,25.7,30.28,NNE,22,8.0,11.0,30,0.00,,---,0.00,VWS V14.01,2013-03-29 18:16:00,
2013-03-29 14:17:00,56.7,25.6,30.28,NNE,22,7.0,9.0,30,0.00,,---,0.00,VWS V14.01,2013-03-29 18:17:00,
2013-03-29 14:18:00,56.8,26.5,30.28,NNE,22,6.0,9.0,31,0.00,,---,0.00,VWS V14.01,2013-03-29 18:18:00,
2013-03-29 14:19:00,57.0,27.5,30.28,West,270,5.0,7.0,32,0.00,,---,0.00,VWS V14.01,2013-03-29 18:19:00,
2013-03-29 14:20:00,57.2,26.9,30.28,WNW,292,5.0,8.0,31,0.00,,---,0.00,VWS V14.01,2013-03-29 18:20:00,
2013-03-29 14:21:00,57.1,26.0,30.28,NNW,338,5.0,6.0,30,0.00,,---,0.00,VWS V14.01,2013-03-29 18:21:00,
2013-03-29 14:22:00,56.9,25.8,30.28,NNE,22,2.0,4.0,30,0.00,,---,0.00,VWS V14.01,2013-03-29 18:22:00,
2013-03-29 14:23:00,56.8,26.5,30.28,NW,315,3.0,5.0,31,0.00,,---,0.00,VWS V14.01,2013-03-29 18:23:00,
2013-03-29 14:24:00,56.8,27.3,30.28,NNE,22,4.0,6.0,32,0.00,,---,0.00,VWS V14.01,2013-03-29 18:24:00,
2013-03-29 14:25:00,57.1,27.5,30.28,West,270,2.0,3.0,32,0.00,,---,0.00,VWS V14.01,2013-03-29 18:25:00,
2013-03-29 14:26:00,57.4,27.0,30.28,NE,45,5.0,7.0,31,0.00,,---,0.00,VWS V14.01,2013-03-29 18:26:00,
2013-03-29 14:27:00,57.5,26.3,30.28,NNE,22,4.0,7.0,30,0.00,,---,0.00,VWS V14.01,2013-03-29 18:27:00,
2013-03-29 14:28:00,57.5,26.3,30.28,West,270,9.0,12.0,30,0.00,,---,0.00,VWS V14.01,2013-03-29 18:28:00,
2013-03-29 14:29:00,57.3,25.3,30.28,WSW,248,8.0,11.0,29,0.00,,---,0.00,VWS V14.01,2013-03-29 18:29:00,
2013-03-29 14:30:00,57.2,26.1,30.28,West,270,6.0,10.0,30,0.00,,---,0.00,VWS V14.01,2013-03-29 18:30:00,
2013-03-29 14:31:00,57.2,26.9,30.28,WNW,292,4.0,6.0,31,0.00,,---,0.00,VWS V14.01,2013-03-29 18:31:00,
2013-03-29 14:32:00,57.4,26.2,30.28,NE,45,2.0,3.0,30,0.00,,---,0.00,VWS V14.01,2013-03-29 18:32:00,
2013-03-29 14:33:00,57.6,27.2,30.28,West,270,7.0,11.0,31,0.00,,---,0.00,VWS V14.01,2013-03-29 18:33:00,
2013-03-29 14:34:00,57.5,25.5,30.28,West,270,4.0,6.0,29,0.00,,---,0.00,VWS V14.01,2013-03-29 18:34:00,
2013-03-29 14:35:00,57.5,26.3,30.28,NNW,338,5.0,7.0,30,0.00,,---,0.00,VWS V14.01,2013-03-29 18:35:00,
2013-03-29 14:36:00,57.4,26.2,30.28,West,270,7.0,10.0,30,0.00,,---,0.00,VWS V14.01,2013-03-29 18:36:00,
2013-03-29 14:37:00,57.2,25.2,30.28,West,270,6.0,10.0,29,0.00,,---,0.00,VWS V14.01,2013-03-29 18:37:00,
2013-03-29 14:38:00,57.1,26.0,30.28,West,270,2.0,3.0,30,0.00,,---,0.00,VWS V14.01,2013-03-29 18:38:00,
2013-03-29 14:39:00,57.1,26.0,30.28,West,270,1.0,2.0,30,0.00,,---,0.00,VWS V14.01,2013-03-29 18:39:00,
2013-03-29 14:40:00,57.3,27.0,30.28,SW,225,1.0,2.0,31,0.00,,---,0.00,VWS V14.01,2013-03-29 18:40:00,
2013-03-29 14:41:00,57.6,27.2,30.27,WSW,248,4.0,9.0,31,0.00,,---,0.00,VWS V14.01,2013-03-29 18:41:00,
2013-03-29 14:42:00,57.6,25.6,30.28,SW,225,7.0,11.0,29,0.00,,---,0.00,VWS V14.01,2013-03-29 18:42:00,
2013-03-29 14:43:00,57.7,26.5,30.27,WSW,248,5.0,9.0,30,0.00,,---,0.00,VWS V14.01,2013-03-29 18:43:00,
2013-03-29 14:44:00,57.9,26.7,30.27,West,270,3.0,5.0,30,0.00,,---,0.00,VWS V14.01,2013-03-29 18:44:00,
2013-03-29 14:45:00,58.1,26.9,30.27,NNE,22,2.0,6.0,30,0.00,,---,0.00,VWS V14.01,2013-03-29 18:45:00,
2013-03-29 14:46:00,58.3,27.8,30.27,NNE,22,5.0,6.0,31,0.00,,---,0.00,VWS V14.01,2013-03-29 18:46:00,
2013-03-29 14:47:00,58.4,26.3,30.27,NNE,22,5.0,6.0,29,0.00,,---,0.00,VWS V14.01,2013-03-29 18:47:00,
2013-03-29 14:48:00,58.4,26.3,30.27,NNW,338,5.0,7.0,29,0.00,,---,0.00,VWS V14.01,2013-03-29 18:48:00,
2013-03-29 14:49:00,58.4,27.1,30.27,NNW,338,6.0,7.0,30,0.00,,---,0.00,VWS V14.01,2013-03-29 18:49:00,
2013-03-29 14:50:00,58.5,27.2,30.27,NNE,22,6.0,9.0,30,0.00,,---,0.00,VWS V14.01,2013-03-29 18:50:00,
2013-03-29 14:51:00,58.6,26.5,30.27,NNW,338,6.0,11.0,29,0.00,,---,0.00,VWS V14.01,2013-03-29 18:51:00,
2013-03-29 14:52:00,58.6,25.6,30.27,WSW,248,7.0,10.0,28,0.00,,---,0.00,VWS V14.01,2013-03-29 18:52:00,
2013-03-29 14:53:00,58.4,24.6,30.27,WSW,248,4.0,6.0,27,0.00,,---,0.00,VWS V14.01,2013-03-29 18:53:00,
2013-03-29 14:54:00,58.2,24.4,30.27,West,270,6.0,7.0,27,0.00,,---,0.00,VWS V14.01,2013-03-29 18:54:00,
2013-03-29 14:55:00,57.9,25.9,30.26,WNW,292,12.0,20.0,29,0.00,,---,0.00,VWS V14.01,2013-03-29 18:55:00,
2013-03-29 14:56:00,57.8,25.8,30.27,West,270,5.0,20.0,29,0.00,,---,0.00,VWS V14.01,2013-03-29 18:56:00,
2013-03-29 14:57:00,57.8,25.8,30.27,NW,315,5.0,8.0,29,0.00,,---,0.00,VWS V14.01,2013-03-29 18:57:00,
2013-03-29 14:58:00,57.8,25.8,30.27,NW,315,4.0,7.0,29,0.00,,---,0.00,VWS V14.01,2013-03-29 18:58:00,
2013-03-29 14:59:00,57.9,25.9,30.27,NNE,22,3.0,4.0,29,0.00,,---,0.00,VWS V14.01,2013-03-29 18:59:00,
2013-03-29 15:00:00,57.8,25.8,30.27,NE,45,5.0,6.0,29,0.00,,---,0.00,VWS V14.01,2013-03-29 19:00:00,
2013-03-29 15:01:00,57.8,25.8,30.27,NNE,22,3.0,8.0,29,0.00,,---,0.00,VWS V14.01,2013-03-29 19:01:00,
2013-03-29 15:02:00,57.8,25.8,30.27,WNW,292,6.0,9.0,29,0.00,,---,0.00,VWS V14.01,2013-03-29 19:02:00,
2013-03-29 15:03:00,57.8,25.8,30.27,WNW,292,5.0,7.0,29,0.00,,---,0.00,VWS V14.01,2013-03-29 19:03:00,
2013-03-29 15:04:00,57.9,26.7,30.27,West,270,4.0,5.0,30,0.00,,---,0.00,VWS V14.01,2013-03-29 19:04:00,
2013-03-29 15:05:00,58.0,26.8,30.27,NW,315,5.0,7.0,30,0.00,,---,0.00,VWS V14.01,2013-03-29 19:05:00,
2013-03-29 15:06:00,58.1,26.0,30.26,NNE,22,5.0,7.0,29,0.00,,---,0.00,VWS V14.01,2013-03-29 19:06:00,
2013-03-29 15:07:00,58.0,25.1,30.26,NNE,22,7.0,10.0,28,0.00,,---,0.00,VWS V14.01,2013-03-29 19:07:00,
2013-03-29 15:08:00,58.0,26.0,30.26,NE,45,7.0,8.0,29,0.00,,---,0.00,VWS V14.01,2013-03-29 19:08:00,
2013-03-29 15:09:00,58.0,26.0,30.26,NNE,22,5.0,7.0,29,0.00,,---,0.00,VWS V14.01,2013-03-29 19:09:00,
2013-03-29 15:10:00,58.1,26.9,30.26,WSW,248,3.0,5.0,30,0.00,,---,0.00,VWS V14.01,2013-03-29 19:10:00,
2013-03-29 15:11:00,58.3,26.2,30.26,WNW,292,5.0,7.0,29,0.00,,---,0.00,VWS V14.01,2013-03-29 19:11:00,
2013-03-29 15:12:00,58.2,25.3,30.26,West,270,7.0,13.0,28,0.00,,---,0.00,VWS V14.01,2013-03-29 19:12:00,
2013-03-29 15:13:00,58.1,26.0,30.26,West,270,6.0,9.0,29,0.00,,---,0.00,VWS V14.01,2013-03-29 19:13:00,
2013-03-29 15:14:00,58.0,25.1,30.26,West,270,7.0,9.0,28,0.00,,---,0.00,VWS V14.01,2013-03-29 19:14:00,
2013-03-29 15:15:00,58.0,26.0,30.26,WNW,292,6.0,10.0,29,0.00,,---,0.00,VWS V14.01,2013-03-29 19:15:00,
2013-03-29 15:16:00,57.9,25.9,30.26,WSW,248,7.0,14.0,29,0.00,,---,0.00,VWS V14.01,2013-03-29 19:16:00,
2013-03-29 15:17:00,58.0,26.0,30.26,NNE,22,7.0,10.0,29,0.00,,---,0.00,VWS V14.01,2013-03-29 19:17:00,
2013-03-29 15:18:00,57.9,25.9,30.26,NNE,22,4.0,6.0,29,0.00,,---,0.00,VWS V14.01,2013-03-29 19:18:00,
2013-03-29 15:19:00,58.1,26.9,30.26,West,270,2.0,4.0,30,0.00,,---,0.00,VWS V14.01,2013-03-29 19:19:00,
2013-03-29 15:20:00,58.3,27.0,30.26,West,270,5.0,14.0,30,0.00,,---,0.00,VWS V14.01,2013-03-29 19:20:00,
2013-03-29 15:21:00,58.5,26.4,30.26,West,270,6.0,10.0,29,0.00,,---,0.00,VWS V14.01,2013-03-29 19:21:00,
2013-03-29 15:22:00,58.6,26.5,30.26,West,270,4.0,7.0,29,0.00,,---,0.00,VWS V14.01,2013-03-29 19:22:00,
2013-03-29 15:23:00,58.6,26.5,30.25,NNW,338,2.0,9.0,29,0.00,,---,0.00,VWS V14.01,2013-03-29 19:23:00,
2013-03-29 15:24:00,58.7,26.5,30.25,WSW,248,8.0,10.0,29,0.00,,---,0.00,VWS V14.01,2013-03-29 19:24:00,
2013-03-29 15:25:00,58.6,26.5,30.25,WNW,292,9.0,15.0,29,0.00,,---,0.00,VWS V14.01,2013-03-29 19:25:00,
2013-03-29 15:26:00,58.5,26.4,30.25,WNW,292,6.0,9.0,29,0.00,,---,0.00,VWS V14.01,2013-03-29 19:26:00,
2013-03-29 15:27:00,58.4,26.3,30.25,WNW,292,5.0,7.0,29,0.00,,---,0.00,VWS V14.01,2013-03-29 19:27:00,
2013-03-29 15:28:00,58.4,27.1,30.25,WNW,292,5.0,11.0,30,0.00,,---,0.00,VWS V14.01,2013-03-29 19:28:00,
2013-03-29 15:29:00,58.5,27.2,30.25,West,270,5.0,7.0,30,0.00,,---,0.00,VWS V14.01,2013-03-29 19:29:00,
2013-03-29 15:30:00,58.7,26.5,30.25,West,270,5.0,6.0,29,0.00,,---,0.00,VWS V14.01,2013-03-29 19:30:00,
2013-03-29 15:31:00,58.8,26.6,30.25,WNW,292,4.0,8.0,29,0.00,,---,0.00,VWS V14.01,2013-03-29 19:31:00,
2013-03-29 15:32:00,58.9,27.5,30.25,West,270,5.0,7.0,30,0.00,,---,0.00,VWS V14.01,2013-03-29 19:32:00,
2013-03-29 15:33:00,59.0,26.8,30.25,West,270,3.0,5.0,29,0.00,,---,0.00,VWS V14.01,2013-03-29 19:33:00,
2013-03-29 15:34:00,59.1,26.9,30.25,West,270,4.0,6.0,29,0.00,,---,0.00,VWS V14.01,2013-03-29 19:34:00,
2013-03-29 15:35:00,59.1,26.9,30.25,WNW,292,5.0,11.0,29,0.00,,---,0.00,VWS V14.01,2013-03-29 19:35:00,
2013-03-29 15:36:00,59.0,26.0,30.25,West,270,9.0,12.0,28,0.00,,---,0.00,VWS V14.01,2013-03-29 19:36:00,
2013-03-29 15:37:00,58.7,25.7,30.25,West,270,10.0,13.0,28,0.00,,---,0.00,VWS V14.01,2013-03-29 19:37:00,
2013-03-29 15:38:00,58.4,25.5,30.25,West,270,7.0,9.0,28,0.00,,---,0.00,VWS V14.01,2013-03-29 19:38:00,
2013-03-29 15:39:00,58.2,26.1,30.25,WSW,248,6.0,9.0,29,0.00,,---,0.00,VWS V14.01,2013-03-29 19:39:00,
2013-03-29 15:40:00,58.1,26.0,30.25,West,270,5.0,6.0,29,0.00,,---,0.00,VWS V14.01,2013-03-29 19:40:00,
2013-03-29 15:41:00,58.0,26.0,30.25,WNW,292,5.0,6.0,29,0.00,,---,0.00,VWS V14.01,2013-03-29 19:41:00,
2013-03-29 15:42:00,58.0,26.0,30.25,West,270,6.0,10.0,29,0.00,,---,0.00,VWS V14.01,2013-03-29 19:42:00,
2013-03-29 15:43:00,57.9,25.9,30.25,West,270,8.0,10.0,29,0.00,,---,0.00,VWS V14.01,2013-03-29 19:43:00,
2013-03-29 15:44:00,57.7,25.7,30.25,SW,225,5.0,7.0,29,0.00,,---,0.00,VWS V14.01,2013-03-29 19:44:00,
2013-03-29 15:45:00,57.7,25.7,30.25,SW,225,3.0,4.0,29,0.00,,---,0.00,VWS V14.01,2013-03-29 19:45:00,
2013-03-29 15:46:00,57.8,26.6,30.25,SE,135,1.0,3.0,30,0.00,,---,0.00,VWS V14.01,2013-03-29 19:46:00,
2013-03-29 15:47:00,58.0,26.8,30.24,WNW,292,1.0,2.0,30,0.00,,---,0.00,VWS V14.01,2013-03-29 19:47:00,
2013-03-29 15:48:00,58.1,26.0,30.25,WNW,292,4.0,6.0,29,0.00,,---,0.00,VWS V14.01,2013-03-29 19:48:00,
2013-03-29 15:49:00,58.1,26.0,30.25,WNW,292,4.0,5.0,29,0.00,,---,0.00,VWS V14.01,2013-03-29 19:49:00,
2013-03-29 15:50:00,58.1,26.0,30.25,NE,45,3.0,4.0,29,0.00,,---,0.00,VWS V14.01,2013-03-29 19:50:00,
2013-03-29 15:51:00,58.2,26.1,30.25,NNE,22,6.0,9.0,29,0.00,,---,0.00,VWS V14.01,2013-03-29 19:51:00,
2013-03-29 15:52:00,58.2,26.1,30.25,NW,315,6.0,8.0,29,0.00,,---,0.00,VWS V14.01,2013-03-29 19:52:00,
2013-03-29 15:53:00,58.1,26.0,30.24,NNE,22,4.0,6.0,29,0.00,,---,0.00,VWS V14.01,2013-03-29 19:53:00,
2013-03-29 15:54:00,58.2,26.9,30.25,West,270,3.0,4.0,30,0.00,,---,0.00,VWS V14.01,2013-03-29 19:54:00,
2013-03-29 15:55:00,58.2,26.1,30.25,WSW,248,3.0,4.0,29,0.00,,---,0.00,VWS V14.01,2013-03-29 19:55:00,
2013-03-29 15:56:00,58.2,26.1,30.25,WNW,292,1.0,2.0,29,0.00,,---,0.00,VWS V14.01,2013-03-29 19:56:00,
2013-03-29 15:57:00,58.2,26.1,30.25,WNW,292,2.0,4.0,29,0.00,,---,0.00,VWS V14.01,2013-03-29 19:57:00,
2013-03-29 15:58:00,58.3,27.0,30.25,NNW,338,4.0,6.0,30,0.00,,---,0.00,VWS V14.01,2013-03-29 19:58:00,
2013-03-29 15:59:00,58.4,27.1,30.25,WNW,292,3.0,5.0,30,0.00,,---,0.00,VWS V14.01,2013-03-29 19:59:00,
2013-03-29 16:00:00,58.5,26.4,30.25,NNE,22,5.0,7.0,29,0.00,,---,0.00,VWS V14.01,2013-03-29 20:00:00,
2013-03-29 16:01:00,58.4,26.3,30.24,NNW,338,5.0,6.0,29,0.00,,---,0.00,VWS V14.01,2013-03-29 20:01:00,
2013-03-29 16:02:00,58.4,26.3,30.24,NW,315,4.0,5.0,29,0.00,,---,0.00,VWS V14.01,2013-03-29 20:02:00,
2013-03-29 16:03:00,58.3,26.2,30.25,NNE,22,4.0,5.0,29,0.00,,---,0.00,VWS V14.01,2013-03-29 20:03:00,
2013-03-29 16:04:00,58.3,26.2,30.25,NW,315,3.0,5.0,29,0.00,,---,0.00,VWS V14.01,2013-03-29 20:04:00,
2013-03-29 16:05:00,58.3,26.2,30.24,NNW,338,2.0,3.0,29,0.00,,---,0.00,VWS V14.01,2013-03-29 20:05:00,
2013-03-29 16:06:00,58.3,26.2,30.24,NNW,338,2.0,3.0,29,0.00,,---,0.00,VWS V14.01,2013-03-29 20:06:00,
2013-03-29 16:07:00,58.4,27.1,30.24,NNE,22,1.0,2.0,30,0.00,,---,0.00,VWS V14.01,2013-03-29 20:07:00,
2013-03-29 16:08:00,58.7,27.4,30.24,NW,315,1.0,1.0,30,0.00,,---,0.00,VWS V14.01,2013-03-29 20:08:00,
2013-03-29 16:09:00,59.0,26.8,30.24,NNE,22,3.0,6.0,29,0.00,,---,0.00,VWS V14.01,2013-03-29 20:09:00,
2013-03-29 16:10:00,59.2,27.0,30.24,WNW,292,3.0,4.0,29,0.00,,---,0.00,VWS V14.01,2013-03-29 20:10:00,
2013-03-29 16:11:00,59.2,27.0,30.24,West,270,2.0,3.0,29,0.00,,---,0.00,VWS V14.01,2013-03-29 20:11:00,
2013-03-29 16:12:00,59.3,27.1,30.24,WNW,292,6.0,9.0,29,0.00,,---,0.00,VWS V14.01,2013-03-29 20:12:00,
2013-03-29 16:13:00,59.1,26.0,30.24,WNW,292,6.0,8.0,28,0.00,,---,0.00,VWS V14.01,2013-03-29 20:13:00,
2013-03-29 16:14:00,59.1,26.9,30.24,West,270,2.0,3.0,29,0.00,,---,0.00,VWS V14.01,2013-03-29 20:14:00,
2013-03-29 16:15:00,59.1,26.9,30.24,West,270,5.0,6.0,29,0.00,,---,0.00,VWS V14.01,2013-03-29 20:15:00,
2013-03-29 16:16:00,59.1,27.7,30.24,West,270,3.0,4.0,30,0.00,,---,0.00,VWS V14.01,2013-03-29 20:16:00,
2013-03-29 16:17:00,59.1,27.7,30.24,West,270,4.0,6.0,30,0.00,,---,0.00,VWS V14.01,2013-03-29 20:17:00,
2013-03-29 16:18:00,59.0,26.8,30.24,SW,225,6.0,9.0,29,0.00,,---,0.00,VWS V14.01,2013-03-29 20:18:00,
2013-03-29 16:19:00,58.9,26.7,30.24,WSW,248,6.0,8.0,29,0.00,,---,0.00,VWS V14.01,2013-03-29 20:19:00,
2013-03-29 16:20:00,58.9,26.7,30.24,WSW,248,1.0,2.0,29,0.00,,---,0.00,VWS V14.01,2013-03-29 20:20:00,
2013-03-29 16:21:00,58.9,25.9,30.24,SW,225,5.0,6.0,28,0.00,,---,0.00,VWS V14.01,2013-03-29 20:21:00,
2013-03-29 16:22:00,58.9,25.9,30.24,SSE,158,2.0,6.0,28,0.00,,---,0.00,VWS V14.01,2013-03-29 20:22:00,
2013-03-29 16:23:00,58.9,25.9,30.24,SSW,202,7.0,9.0,28,0.00,,---,0.00,VWS V14.01,2013-03-29 20:23:00,
2013-03-29 16:24:00,58.8,26.6,30.24,SSW,202,4.0,5.0,29,0.00,,---,0.00,VWS V14.01,2013-03-29 20:24:00,
2013-03-29 16:25:00,58.9,26.7,30.24,West,270,5.0,9.0,29,0.00,,---,0.00,VWS V14.01,2013-03-29 20:25:00,
2013-03-29 16:26:00,58.9,25.9,30.24,WSW,248,8.0,9.0,28,0.00,,---,0.00,VWS V14.01,2013-03-29 20:26:00,
2013-03-29 16:27:00,58.8,25.8,30.23,SW,225,8.0,11.0,28,0.00,,---,0.00,VWS V14.01,2013-03-29 20:27:00,
2013-03-29 16:28:00,58.6,25.6,30.24,West,270,3.0,7.0,28,0.00,,---,0.00,VWS V14.01,2013-03-29 20:28:00,
2013-03-29 16:29:00,58.6,26.5,30.24,West,270,3.0,6.0,29,0.00,,---,0.00,VWS V14.01,2013-03-29 20:29:00,
2013-03-29 16:30:00,58.7,26.5,30.24,West,270,4.0,5.0,29,0.00,,---,0.00,VWS V14.01,2013-03-29 20:30:00,
2013-03-29 16:31:00,58.7,25.7,30.24,West,270,3.0,4.0,28,0.00,,---,0.00,VWS V14.01,2013-03-29 20:31:00,
2013-03-29 16:32:00,58.7,26.5,30.24,West,270,3.0,4.0,29,0.00,,---,0.00,VWS V14.01,2013-03-29 20:32:00,
2013-03-29 16:33:00,58.8,27.5,30.23,WSW,248,5.0,6.0,30,0.00,,---,0.00,VWS V14.01,2013-03-29 20:33:00,
2013-03-29 16:34:00,58.9,26.7,30.24,WSW,248,6.0,9.0,29,0.00,,---,0.00,VWS V14.01,2013-03-29 20:34:00,
2013-03-29 16:35:00,58.9,25.9,30.24,WSW,248,4.0,6.0,28,0.00,,---,0.00,VWS V14.01,2013-03-29 20:35:00,
2013-03-29 16:36:00,59.0,26.8,30.24,WNW,292,4.0,5.0,29,0.00,,---,0.00,VWS V14.01,2013-03-29 20:36:00,
2013-03-29 16:37:00,59.0,26.8,30.24,WNW,292,3.0,5.0,29,0.00,,---,0.00,VWS V14.01,2013-03-29 20:37:00,
2013-03-29 16:38:00,59.1,26.9,30.23,WNW,292,3.0,5.0,29,0.00,,---,0.00,VWS V14.01,2013-03-29 20:38:00,
2013-03-29 16:39:00,59.3,27.1,30.23,NNE,22,4.0,7.0,29,0.00,,---,0.00,VWS V14.01,2013-03-29 20:39:00,
2013-03-29 16:40:00,59.4,27.2,30.23,NNE,22,5.0,6.0,29,0.00,,---,0.00,VWS V14.01,2013-03-29 20:40:00,
2013-03-29 16:41:00,59.6,27.3,30.23,NNW,338,5.0,7.0,29,0.00,,---,0.00,VWS V14.01,2013-03-29 20:41:00,
2013-03-29 16:42:00,59.7,27.4,30.23,NNW,338,2.0,3.0,29,0.00,,---,0.00,VWS V14.01,2013-03-29 20:42:00,
2013-03-29 16:43:00,60.0,27.7,30.23,West,270,2.0,4.0,29,0.00,,---,0.00,VWS V14.01,2013-03-29 20:43:00,
2013-03-29 16:44:00,60.0,26.8,30.23,West,270,4.0,7.0,28,0.00,,---,0.00,VWS V14.01,2013-03-29 20:44:00,
2013-03-29 16:45:00,60.0,26.8,30.23,SW,225,4.0,6.0,28,0.00,,---,0.00,VWS V14.01,2013-03-29 20:45:00,
2013-03-29 16:46:00,60.0,26.8,30.23,West,270,4.0,5.0,28,0.00,,---,0.00,VWS V14.01,2013-03-29 20:46:00,
2013-03-29 16:47:00,60.0,26.8,30.23,WSW,248,4.0,5.0,28,0.00,,---,0.00,VWS V14.01,2013-03-29 20:47:00,
2013-03-29 16:48:00,60.0,26.8,30.23,West,270,4.0,6.0,28,0.00,,---,0.00,VWS V14.01,2013-03-29 20:48:00,
2013-03-29 16:49:00,60.1,27.8,30.23,WSW,248,4.0,6.0,29,0.00,,---,0.00,VWS V14.01,2013-03-29 20:49:00,
2013-03-29 16:50:00,60.1,26.0,30.23,WSW,248,4.0,7.0,27,0.00,,---,0.00,VWS V14.01,2013-03-29 20:50:00,
2013-03-29 16:51:00,60.1,26.9,30.23,West,270,3.0,5.0,28,0.00,,---,0.00,VWS V14.01,2013-03-29 20:51:00,
2013-03-29 16:52:00,60.2,27.0,30.23,West,270,3.0,6.0,28,0.00,,---,0.00,VWS V14.01,2013-03-29 20:52:00,
2013-03-29 16:53:00,60.2,27.0,30.23,WSW,248,3.0,5.0,28,0.00,,---,0.00,VWS V14.01,2013-03-29 20:53:00,
2013-03-29 16:54:00,60.1,26.0,30.23,West,270,2.0,4.0,27,0.00,,---,0.00,VWS V14.01,2013-03-29 20:54:00,
2013-03-29 16:55:00,60.0,26.0,30.23,WNW,292,3.0,6.0,27,0.00,,---,0.00,VWS V14.01,2013-03-29 20:55:00,
2013-03-29 16:56:00,60.1,26.0,30.23,NE,45,5.0,8.0,27,0.00,,---,0.00,VWS V14.01,2013-03-29 20:56:00,
2013-03-29 16:57:00,60.0,26.0,30.23,NNE,22,7.0,11.0,27,0.00,,---,0.00,VWS V14.01,2013-03-29 20:57:00,
2013-03-29 16:58:00,59.8,25.8,30.23,NNE,22,7.0,10.0,27,0.00,,---,0.00,VWS V14.01,2013-03-29 20:58:00,
2013-03-29 17:08:00,59.3,26.2,30.23,NW,315,2.0,3.0,28,0.00,,---,0.00,VWS V14.01,2013-03-29 21:08:00,
2013-03-29 17:13:00,59.2,26.1,30.23,WSW,257,5.0,5.0,28,0.00,,---,0.00,VWS V14.01,2013-03-29 21:13:00,
2013-03-29 17:18:00,58.9,25.9,30.23,West,277,7.0,7.0,28,0.00,,---,0.00,VWS V14.01,2013-03-29 21:18:00,
2013-03-29 17:23:00,58.6,26.5,30.23,WNW,300,4.0,4.0,29,0.00,,---,0.00,VWS V14.01,2013-03-29 21:23:00,
2013-03-29 17:28:00,58.6,27.3,30.23,WSW,237,3.0,3.0,30,0.00,,---,0.00,VWS V14.01,2013-03-29 21:28:00,
2013-03-29 17:33:00,58.6,27.3,30.23,West,259,1.0,2.0,30,0.00,,---,0.00,VWS V14.01,2013-03-29 21:33:00,
2013-03-29 17:38:00,58.7,26.5,30.23,SW,236,4.0,6.0,29,0.00,,---,0.00,VWS V14.01,2013-03-29 21:38:00,
2013-03-29 17:43:00,58.5,26.4,30.23,West,271,4.0,8.0,29,0.00,,---,0.00,VWS V14.01,2013-03-29 21:43:00,
2013-03-29 17:48:00,58.3,26.2,30.23,WNW,294,4.0,4.0,29,0.00,,---,0.00,VWS V14.01,2013-03-29 21:48:00,
2013-03-29 17:53:00,58.3,26.2,30.23,West,275,7.0,7.0,29,0.00,,---,0.00,VWS V14.01,2013-03-29 21:53:00,
2013-03-29 17:58:00,58.5,26.4,30.23,SW,230,6.0,6.0,29,0.00,,---,0.00,VWS V14.01,2013-03-29 21:58:00,
2013-03-29 18:03:00,59.0,26.0,30.23,NNW,338,2.0,3.0,28,0.00,,---,0.00,VWS V14.01,2013-03-29 22:03:00,
2013-03-29 18:08:00,58.8,24.0,30.23,West,259,4.0,4.0,26,0.00,,---,0.00,VWS V14.01,2013-03-29 22:08:00,
2013-03-29 18:13:00,58.4,24.6,30.23,West,263,4.0,4.0,27,0.00,,---,0.00,VWS V14.01,2013-03-29 22:13:00,
2013-03-29 18:18:00,58.3,25.4,30.23,WNW,287,1.0,1.0,28,0.00,,---,0.00,VWS V14.01,2013-03-29 22:18:00,
2013-03-29 18:23:00,58.2,25.3,30.23,West,273,1.0,2.0,28,0.00,,---,0.00,VWS V14.01,2013-03-29 22:23:00,
2013-03-29 18:28:00,58.2,25.3,30.23,WSW,257,4.0,4.0,28,0.00,,---,0.00,VWS V14.01,2013-03-29 22:28:00,
2013-03-29 18:33:00,58.2,26.1,30.23,WNW,291,2.0,3.0,29,0.00,,---,0.00,VWS V14.01,2013-03-29 22:33:00,
2013-03-29 18:38:00,58.0,25.1,30.23,West,273,1.0,2.0,28,0.00,,---,0.00,VWS V14.01,2013-03-29 22:38:00,
2013-03-29 18:43:00,57.9,25.0,30.23,NW,318,0.0,0.0,28,0.00,,---,0.00,VWS V14.01,2013-03-29 22:43:00,
2013-03-29 18:48:00,57.9,25.9,30.23,WNW,292,1.0,1.0,29,0.00,,---,0.00,VWS V14.01,2013-03-29 22:48:00,
2013-03-29 18:53:00,58.1,26.0,30.23,West,269,2.0,2.0,29,0.00,,---,0.00,VWS V14.01,2013-03-29 22:53:00,
2013-03-29 18:58:00,58.5,25.5,30.23,West,275,0.0,0.0,28,0.00,,---,0.00,VWS V14.01,2013-03-29 22:58:00,
2013-03-29 19:03:00,58.6,25.6,30.23,West,269,0.0,0.0,28,0.00,,---,0.00,VWS V14.01,2013-03-29 23:03:00,
2013-03-29 19:08:00,58.4,26.3,30.23,WSW,256,0.0,0.0,29,0.00,,---,0.00,VWS V14.01,2013-03-29 23:08:00,
2013-03-29 19:13:00,58.1,26.0,30.23,West,280,2.0,3.0,29,0.00,,---,0.00,VWS V14.01,2013-03-29 23:13:00,
2013-03-29 19:18:00,57.7,25.7,30.23,West,269,0.0,1.0,29,0.00,,---,0.00,VWS V14.01,2013-03-29 23:18:00,
2013-03-29 19:23:00,57.4,26.2,30.23,West,269,0.0,0.0,30,0.00,,---,0.00,VWS V14.01,2013-03-29 23:23:00,
2013-03-29 19:28:00,56.9,26.6,30.23,West,269,0.0,0.0,31,0.00,,---,0.00,VWS V14.01,2013-03-29 23:28:00,
2013-03-29 19:33:00,56.3,26.1,30.23,West,269,0.0,0.0,31,0.00,,---,0.00,VWS V14.01,2013-03-29 23:33:00,
2013-03-29 19:38:00,55.8,25.6,30.23,West,269,0.0,0.0,31,0.00,,---,0.00,VWS V14.01,2013-03-29 23:38:00,
2013-03-29 19:43:00,55.4,26.0,30.24,West,269,0.0,0.0,32,0.00,,---,0.00,VWS V14.01,2013-03-29 23:43:00,
2013-03-29 19:48:00,55.1,26.5,30.24,WSW,258,0.0,0.0,33,0.00,,---,0.00,VWS V14.01,2013-03-29 23:48:00,
2013-03-29 19:53:00,54.4,26.6,30.24,West,259,0.0,0.0,34,0.00,,---,0.00,VWS V14.01,2013-03-29 23:53:00,
2013-03-29 19:58:00,53.8,26.1,30.24,West,259,0.0,0.0,34,0.00,,---,0.00,VWS V14.01,2013-03-29 23:58:00,
2013-03-29 20:03:00,53.4,26.5,30.24,West,259,0.0,0.0,35,0.00,,---,0.00,VWS V14.01,2013-03-30 00:03:00,
2013-03-29 20:08:00,52.9,26.7,30.24,WSW,258,0.0,0.0,36,0.00,,---,0.00,VWS V14.01,2013-03-30 00:08:00,
2013-03-29 20:13:00,52.2,26.1,30.24,West,259,0.0,0.0,36,0.00,,---,0.00,VWS V14.01,2013-03-30 00:13:00,
2013-03-29 20:18:00,51.7,25.6,30.24,West,259,0.0,0.0,36,0.00,,---,0.00,VWS V14.01,2013-03-30 00:18:00,
2013-03-29 20:23:00,51.7,27.6,30.24,West,259,0.0,0.0,39,0.00,,---,0.00,VWS V14.01,2013-03-30 00:23:00,
2013-03-29 20:28:00,51.3,26.6,30.24,WSW,258,0.0,0.0,38,0.00,,---,0.00,VWS V14.01,2013-03-30 00:28:00,
2013-03-29 20:33:00,51.1,27.6,30.24,West,259,0.0,0.0,40,0.00,,---,0.00,VWS V14.01,2013-03-30 00:33:00,
2013-03-29 20:38:00,50.6,27.8,30.24,West,259,0.0,0.0,41,0.00,,---,0.00,VWS V14.01,2013-03-30 00:38:00,
2013-03-29 20:43:00,50.2,28.6,30.24,West,259,0.0,0.0,43,0.00,,---,0.00,VWS V14.01,2013-03-30 00:43:00,
2013-03-29 20:48:00,49.9,28.3,30.25,West,259,0.0,0.0,43,0.00,,---,0.00,VWS V14.01,2013-03-30 00:48:00,
2013-03-29 20:53:00,49.7,27.6,30.25,WSW,258,0.0,0.0,42,0.00,,---,0.00,VWS V14.01,2013-03-30 00:53:00,
2013-03-29 20:58:00,49.6,28.6,30.25,West,259,0.0,0.0,44,0.00,,---,0.00,VWS V14.01,2013-03-30 00:58:00,
2013-03-29 21:03:00,49.3,28.3,30.25,SW,219,0.0,0.0,44,0.00,,---,0.00,VWS V14.01,2013-03-30 01:03:00,
2013-03-29 21:08:00,49.3,28.9,30.25,SW,219,0.0,0.0,45,0.00,,---,0.00,VWS V14.01,2013-03-30 01:08:00,
2013-03-29 21:13:00,48.9,27.4,30.25,SW,219,0.0,0.0,43,0.00,,---,0.00,VWS V14.01,2013-03-30 01:13:00,
2013-03-29 21:18:00,48.7,28.3,30.25,SW,219,0.0,0.0,45,0.00,,---,0.00,VWS V14.01,2013-03-30 01:18:00,
2013-03-29 21:23:00,48.5,28.1,30.25,SW,219,0.0,0.0,45,0.00,,---,0.00,VWS V14.01,2013-03-30 01:23:00,
2013-03-29 21:28:00,48.4,27.5,30.25,SW,219,1.0,1.0,44,0.00,,---,0.00,VWS V14.01,2013-03-30 01:28:00,
2013-03-29 21:33:00,48.6,27.7,30.25,SW,219,0.0,1.0,44,0.00,,---,0.00,VWS V14.01,2013-03-30 01:33:00,
2013-03-29 21:38:00,48.8,27.9,30.25,SW,219,1.0,1.0,44,0.00,,---,0.00,VWS V14.01,2013-03-30 01:38:00,
2013-03-29 21:43:00,48.9,28.0,30.25,SSW,210,1.0,2.0,44,0.00,,---,0.00,VWS V14.01,2013-03-30 01:43:00,
2013-03-29 21:48:00,48.8,28.4,30.25,SSW,210,0.0,1.0,45,0.00,,---,0.00,VWS V14.01,2013-03-30 01:48:00,
2013-03-29 21:53:00,48.7,28.3,30.25,SSW,210,0.0,1.0,45,0.00,,---,0.00,VWS V14.01,2013-03-30 01:53:00,
2013-03-29 21:58:00,48.5,28.1,30.25,SSW,211,0.0,1.0,45,0.00,,---,0.00,VWS V14.01,2013-03-30 01:58:00,
2013-03-29 22:03:00,48.3,28.0,30.25,SSW,210,1.0,1.0,45,0.00,,---,0.00,VWS V14.01,2013-03-30 02:03:00,
2013-03-29 22:08:00,48.1,27.8,30.25,SSW,210,0.0,0.0,45,0.00,,---,0.00,VWS V14.01,2013-03-30 02:08:00,
2013-03-29 22:13:00,48.0,28.8,30.26,SSW,210,0.0,0.0,47,0.00,,---,0.00,VWS V14.01,2013-03-30 02:13:00,
2013-03-29 22:18:00,47.7,28.5,30.26,SW,223,0.0,1.0,47,0.00,,---,0.00,VWS V14.01,2013-03-30 02:18:00,
2013-03-29 22:23:00,47.6,27.9,30.26,SSW,198,0.0,1.0,46,0.00,,---,0.00,VWS V14.01,2013-03-30 02:23:00,
2013-03-29 22:28:00,47.8,27.5,30.26,SSW,199,0.0,1.0,45,0.00,,---,0.00,VWS V14.01,2013-03-30 02:28:00,
2013-03-29 22:33:00,47.9,27.6,30.26,SSW,199,0.0,1.0,45,0.00,,---,0.00,VWS V14.01,2013-03-30 02:33:00,
2013-03-29 22:38:00,48.2,26.8,30.26,SSW,196,2.0,2.0,43,0.00,,---,0.00,VWS V14.01,2013-03-30 02:38:00,
2013-03-29 22:43:00,48.9,27.4,30.25,SSW,196,1.0,1.0,43,0.00,,---,0.00,VWS V14.01,2013-03-30 02:43:00,
2013-03-29 22:48:00,48.9,28.0,30.26,SSW,206,0.0,1.0,44,0.00,,---,0.00,VWS V14.01,2013-03-30 02:48:00,
2013-03-29 22:53:00,48.8,27.3,30.25,SSW,199,0.0,1.0,43,0.00,,---,0.00,VWS V14.01,2013-03-30 02:53:00,
2013-03-29 22:58:00,48.7,27.8,30.25,SSW,198,0.0,0.0,44,0.00,,---,0.00,VWS V14.01,2013-03-30 02:58:00,
2013-03-29 23:03:00,49.0,27.5,30.25,South,191,0.0,0.0,43,0.00,,---,0.00,VWS V14.01,2013-03-30 03:03:00,
2013-03-29 23:08:00,49.0,28.0,30.25,SW,218,0.0,0.0,44,0.00,,---,0.00,VWS V14.01,2013-03-30 03:08:00,
2013-03-29 23:13:00,48.7,28.3,30.25,SW,218,0.0,0.0,45,0.00,,---,0.00,VWS V14.01,2013-03-30 03:13:00,
2013-03-29 23:18:00,48.4,27.5,30.25,WSW,244,0.0,0.0,44,0.00,,---,0.00,VWS V14.01,2013-03-30 03:18:00,
2013-03-29 23:23:00,48.6,28.2,30.25,WSW,242,0.0,0.0,45,0.00,,---,0.00,VWS V14.01,2013-03-30 03:23:00,
2013-03-29 23:28:00,48.4,28.6,30.25,SW,230,0.0,0.0,46,0.00,,---,0.00,VWS V14.01,2013-03-30 03:28:00,
2013-03-29 23:33:00,48.5,28.1,30.25,WSW,246,0.0,2.0,45,0.00,,---,0.00,VWS V14.01,2013-03-30 03:33:00,
2013-03-29 23:38:00,48.8,28.4,30.25,WSW,237,0.0,1.0,45,0.00,,---,0.00,VWS V14.01,2013-03-30 03:38:00,
2013-03-29 23:43:00,49.1,28.7,30.25,WSW,242,0.0,1.0,45,0.00,,---,0.00,VWS V14.01,2013-03-30 03:43:00,
2013-03-29 23:48:00,49.4,29.0,30.25,WSW,254,2.0,2.0,45,0.00,,---,0.00,VWS V14.01,2013-03-30 03:48:00,
2013-03-29 23:53:00,50.0,29.0,30.25,West,263,1.0,2.0,44,0.00,,---,0.00,VWS V14.01,2013-03-30 03:53:00,
2013-03-29 23:58:00,50.5,28.9,30.25,WSW,254,2.0,2.0,43,0.00,,---,0.00,VWS V14.01,2013-03-30 03:58:00,